AFL1704 UUEE-UHWW

Flight info

Callsign AFL1704
Flight time N/A
Altitude 35000
Route RILPO3F RILPO T753 MIGRI N155 NIPRA T631 URMAN B229 KANAL G483 URAMI P989 KUMIR L870 PTG R809 DINEP R359 BEBAG/K0896F370 R359 LEDIS N992 TORMA A946 IVADA L168 HAB/K0909F380 B355 BG/K0837F220 G714 DAGES DAGES2S
Aircraft B77W/H-SDE1E2E3FGHIJ2J3J4J5M1RWXY/LB1D1

Departure

Time 2026-05-06 20:14
Airport Sheremetyevo International Airport (UUEE)

Arrival

Time N/A
Airport Vladivostok International Airport (UHWW)
Time Latitude Longitude Altitude Speed Heading
2026-05-06 19:45 55.97839 37.41945 644 ft 0 kts 279°
2026-05-06 20:02 55.97837 37.41974 647 ft 2 kts 274°
2026-05-06 20:02 55.97837 37.42003 647 ft 2 kts 258°
2026-05-06 20:03 55.97842 37.42032 646 ft 2 kts 233°
2026-05-06 20:03 55.97855 37.42050 646 ft 2 kts 194°
2026-05-06 20:03 55.97867 37.42053 648 ft 1 kts 169°
2026-05-06 20:03 55.97868 37.42052 648 ft 0 kts 168°
2026-05-06 20:06 55.97854 37.42059 647 ft 8 kts 165°
2026-05-06 20:06 55.97771 37.42099 649 ft 11 kts 165°
2026-05-06 20:07 55.97709 37.42119 647 ft 7 kts 191°
2026-05-06 20:07 55.97674 37.42060 648 ft 7 kts 239°
2026-05-06 20:07 55.97653 37.41966 648 ft 9 kts 251°
2026-05-06 20:07 55.97632 37.41840 647 ft 12 kts 256°
2026-05-06 20:08 55.97606 37.41662 647 ft 17 kts 255°
2026-05-06 20:08 55.97571 37.41426 649 ft 22 kts 255°
2026-05-06 20:08 55.97528 37.41148 646 ft 23 kts 255°
2026-05-06 20:08 55.97487 37.40867 648 ft 23 kts 255°
2026-05-06 20:09 55.97445 37.40585 647 ft 23 kts 255°
2026-05-06 20:09 55.97403 37.40304 647 ft 23 kts 255°
2026-05-06 20:09 55.97360 37.40024 645 ft 23 kts 255°
2026-05-06 20:09 55.97317 37.39737 647 ft 24 kts 255°
2026-05-06 20:10 55.97275 37.39448 647 ft 24 kts 255°
2026-05-06 20:10 55.97249 37.39274 648 ft 14 kts 255°
2026-05-06 20:10 55.97223 37.39104 646 ft 16 kts 255°
2026-05-06 20:10 55.97186 37.38858 648 ft 24 kts 255°
2026-05-06 20:11 55.97162 37.38708 645 ft 9 kts 244°
2026-05-06 20:11 55.97110 37.38665 648 ft 9 kts 178°
2026-05-06 20:11 55.97050 37.38685 646 ft 9 kts 166°
2026-05-06 20:11 55.96991 37.38712 646 ft 9 kts 166°
2026-05-06 20:12 55.96931 37.38740 647 ft 9 kts 166°
2026-05-06 20:12 55.96870 37.38768 646 ft 9 kts 166°
2026-05-06 20:12 55.96809 37.38797 651 ft 9 kts 165°
2026-05-06 20:12 55.96764 37.38869 648 ft 9 kts 107°
2026-05-06 20:13 55.96769 37.38986 648 ft 10 kts 76°
2026-05-06 20:13 55.96778 37.39046 646 ft 0 kts 75°
2026-05-06 20:14 55.96786 37.39099 647 ft 26 kts 76°
2026-05-06 20:14 55.96922 37.40009 647 ft 125 kts 75°
2026-05-06 20:14 55.97239 37.42039 726 ft 205 kts 74°
2026-05-06 20:14 55.97641 37.44740 1418 ft 244 kts 73°
2026-05-06 20:15 55.98145 37.47780 2541 ft 262 kts 72°
2026-05-06 20:15 55.98541 37.50946 3220 ft 262 kts 91°
2026-05-06 20:15 55.98206 37.54164 3820 ft 268 kts 104°
2026-05-06 20:15 55.97885 37.57501 4019 ft 279 kts 95°
2026-05-06 20:16 55.97804 37.60972 3909 ft 278 kts 90°
2026-05-06 20:16 55.97813 37.64362 3942 ft 269 kts 88°
2026-05-06 20:16 55.98220 37.67556 3983 ft 268 kts 59°
2026-05-06 20:16 55.99513 37.69915 4002 ft 270 kts 27°
2026-05-06 20:17 56.00659 37.70781 4010 ft 269 kts 17°
2026-05-06 20:17 56.02443 37.71847 4002 ft 272 kts 17°
2026-05-06 20:17 56.04242 37.72951 4005 ft 273 kts 18°
2026-05-06 20:17 56.06009 37.74041 3988 ft 268 kts 18°
2026-05-06 20:18 56.07691 37.75351 3979 ft 265 kts 37°
2026-05-06 20:18 56.08980 37.77719 4407 ft 271 kts 45°
2026-05-06 20:18 56.10322 37.80171 5117 ft 280 kts 42°
2026-05-06 20:18 56.11716 37.82638 5790 ft 284 kts 41°
2026-05-06 20:19 56.13135 37.85150 6001 ft 286 kts 39°
2026-05-06 20:19 56.14779 37.87000 6016 ft 278 kts 11°
2026-05-06 20:19 56.16659 37.87468 6583 ft 274 kts 359°
2026-05-06 20:19 56.18583 37.87741 7321 ft 278 kts 359°
2026-05-06 20:20 56.20529 37.88027 7904 ft 283 kts 359°
2026-05-06 20:20 56.22493 37.88319 7987 ft 286 kts 359°
2026-05-06 20:20 56.24475 37.88615 7996 ft 285 kts 359°
2026-05-06 20:20 56.26443 37.88913 7991 ft 283 kts 359°
2026-05-06 20:21 56.28404 37.89206 7999 ft 282 kts 359°
2026-05-06 20:21 56.30362 37.89465 8465 ft 283 kts 358°
2026-05-06 20:21 56.32344 37.89718 9278 ft 287 kts 358°
2026-05-06 20:21 56.34314 37.89972 10088 ft 289 kts 358°
2026-05-06 20:22 56.36385 37.90238 10619 ft 303 kts 358°
2026-05-06 20:22 56.38550 37.90509 10805 ft 328 kts 359°
2026-05-06 20:22 56.40916 37.90815 11004 ft 354 kts 359°
2026-05-06 20:22 56.43439 37.91151 11375 ft 372 kts 359°
2026-05-06 20:23 56.46059 37.91511 12056 ft 381 kts 360°
2026-05-06 20:23 56.48723 37.91883 12860 ft 387 kts 360°
2026-05-06 20:23 56.51424 37.92258 13713 ft 392 kts 359°
2026-05-06 20:23 56.54159 37.92636 14478 ft 396 kts 359°
2026-05-06 20:24 56.56929 37.93015 15215 ft 402 kts 360°
2026-05-06 20:24 56.59738 37.93401 15931 ft 407 kts 360°
2026-05-06 20:24 56.62584 37.93790 16646 ft 413 kts 360°
2026-05-06 20:24 56.65469 37.94185 17360 ft 419 kts 360°
2026-05-06 20:25 56.68353 37.95057 17860 ft 431 kts 15°
2026-05-06 20:25 56.71027 37.97711 18410 ft 447 kts 37°
2026-05-06 20:25 56.73259 38.01649 19001 ft 450 kts 43°
2026-05-06 20:25 56.75465 38.05746 19561 ft 456 kts 43°
2026-05-06 20:26 56.77705 38.09865 20193 ft 459 kts 43°
2026-05-06 20:26 56.79977 38.13994 20858 ft 463 kts 43°
2026-05-06 20:26 56.82276 38.18141 21483 ft 467 kts 42°
2026-05-06 20:26 56.84601 38.22322 22073 ft 471 kts 42°
2026-05-06 20:27 56.86945 38.26544 22646 ft 476 kts 42°
2026-05-06 20:27 56.89369 38.30692 23230 ft 479 kts 39°
2026-05-06 20:27 56.91895 38.34692 23750 ft 483 kts 38°
2026-05-06 20:27 56.94483 38.38658 24263 ft 485 kts 37°
2026-05-06 20:28 56.97082 38.42624 24799 ft 487 kts 37°
2026-05-06 20:28 56.99686 38.46625 25316 ft 490 kts 37°
2026-05-06 20:28 57.02293 38.50676 25792 ft 493 kts 38°
2026-05-06 20:28 57.04909 38.54776 26268 ft 496 kts 38°
2026-05-06 20:29 57.07498 38.58862 26724 ft 499 kts 38°
2026-05-06 20:29 57.10135 38.63043 27176 ft 502 kts 38°
2026-05-06 20:29 57.12781 38.67246 27618 ft 504 kts 38°
2026-05-06 20:29 57.15441 38.71482 28045 ft 507 kts 38°
2026-05-06 20:30 57.18117 38.75748 28454 ft 509 kts 38°
2026-05-06 20:30 57.23501 38.84353 29209 ft 515 kts 38°
2026-05-06 20:30 57.26207 38.88690 29554 ft 517 kts 38°
2026-05-06 20:31 57.28927 38.93057 29887 ft 519 kts 38°
2026-05-06 20:31 57.31650 38.97440 30272 ft 519 kts 38°
2026-05-06 20:31 57.34367 39.01823 30731 ft 516 kts 38°
2026-05-06 20:31 57.37068 39.06191 31198 ft 514 kts 38°
2026-05-06 20:32 57.39752 39.10537 31634 ft 512 kts 38°
2026-05-06 20:32 57.42427 39.14877 32008 ft 511 kts 38°
2026-05-06 20:32 57.45097 39.19215 32391 ft 510 kts 38°
2026-05-06 20:32 57.47765 39.23558 32782 ft 508 kts 38°
2026-05-06 20:33 57.50416 39.27882 33167 ft 507 kts 38°
2026-05-06 20:33 57.53065 39.32197 33548 ft 505 kts 38°
2026-05-06 20:33 57.55702 39.36496 33915 ft 504 kts 37°
2026-05-06 20:33 57.58337 39.40799 34201 ft 503 kts 37°
2026-05-06 20:34 57.60969 39.45104 34444 ft 503 kts 37°
2026-05-06 20:34 57.63603 39.49424 34685 ft 504 kts 38°
2026-05-06 20:34 57.66232 39.53746 34884 ft 505 kts 38°
2026-05-06 20:35 57.71523 39.62470 34970 ft 508 kts 38°
2026-05-06 20:35 57.76799 39.71214 34967 ft 504 kts 38°
2026-05-06 20:36 57.82026 39.79907 34981 ft 502 kts 38°
2026-05-06 20:36 57.87245 39.88614 34981 ft 501 kts 38°
2026-05-06 20:37 57.92440 39.97374 34989 ft 502 kts 38°
2026-05-06 20:37 57.97633 40.06200 34992 ft 503 kts 38°
2026-05-06 20:38 58.02835 40.15072 34992 ft 505 kts 38°
2026-05-06 20:38 58.08046 40.23989 34987 ft 506 kts 38°
2026-05-06 20:39 58.13259 40.32942 34989 ft 507 kts 38°
2026-05-06 20:39 58.18479 40.41937 34991 ft 507 kts 38°
2026-05-06 20:40 58.23717 40.50896 34998 ft 507 kts 38°
2026-05-06 20:40 58.28960 40.59871 34987 ft 508 kts 38°
2026-05-06 20:41 58.34203 40.68897 34993 ft 508 kts 38°
2026-05-06 20:41 58.39429 40.77943 34997 ft 508 kts 38°
2026-05-06 20:42 58.44660 40.87038 34997 ft 509 kts 38°
2026-05-06 20:42 58.49891 40.96169 35000 ft 509 kts 38°
2026-05-06 20:43 58.55116 41.05329 35001 ft 510 kts 38°
2026-05-06 20:43 58.60346 41.14536 34995 ft 510 kts 38°
2026-05-06 20:44 58.65565 41.23764 35001 ft 511 kts 38°
2026-05-06 20:44 58.70789 41.33035 34998 ft 511 kts 38°
2026-05-06 20:45 58.75696 41.43012 34998 ft 519 kts 50°
2026-05-06 20:45 58.79238 41.55106 34997 ft 527 kts 66°
2026-05-06 20:46 58.81764 41.68381 35004 ft 528 kts 68°
2026-05-06 20:46 58.84216 41.81759 35004 ft 529 kts 68°
2026-05-06 20:47 58.86716 41.95139 35001 ft 530 kts 68°
2026-05-06 20:47 58.89241 42.08510 34996 ft 530 kts 67°
2026-05-06 20:48 58.91763 42.21914 34996 ft 530 kts 68°
2026-05-06 20:48 58.94264 42.35325 34995 ft 530 kts 68°
2026-05-06 20:49 58.96751 42.48768 34989 ft 530 kts 68°
2026-05-06 20:49 58.99221 42.62223 34982 ft 530 kts 68°
2026-05-06 20:50 59.01676 42.75692 34976 ft 529 kts 68°
2026-05-06 20:50 59.04116 42.89170 34997 ft 529 kts 68°
2026-05-06 20:51 59.06542 43.02662 34983 ft 529 kts 68°
2026-05-06 20:51 59.08953 43.16175 34977 ft 529 kts 68°
2026-05-06 20:52 59.11352 43.29711 34984 ft 529 kts 68°
2026-05-06 20:52 59.13733 43.43253 34985 ft 529 kts 68°
2026-05-06 20:53 59.16104 43.56827 34973 ft 529 kts 68°
2026-05-06 20:53 59.18458 43.70410 34973 ft 529 kts 68°
2026-05-06 20:54 59.20784 43.83933 34977 ft 529 kts 69°
2026-05-06 20:54 59.23110 43.97557 34972 ft 529 kts 69°
2026-05-06 20:55 59.25426 44.11208 34963 ft 529 kts 69°
2026-05-06 20:55 59.27828 44.24799 34961 ft 528 kts 66°
2026-05-06 20:56 59.30492 44.38170 34968 ft 528 kts 65°
2026-05-06 20:56 59.33163 44.51555 34962 ft 528 kts 65°
2026-05-06 20:57 59.35774 44.65017 34962 ft 528 kts 66°
2026-05-06 20:57 59.38347 44.78513 34956 ft 529 kts 66°
2026-05-06 20:58 59.40909 44.92036 34953 ft 529 kts 66°
2026-05-06 20:58 59.43460 45.05577 34956 ft 529 kts 66°
2026-05-06 20:59 59.46000 45.19148 34949 ft 529 kts 66°
2026-05-06 20:59 59.48524 45.32729 34948 ft 529 kts 67°
2026-05-06 21:00 59.51036 45.46330 34948 ft 529 kts 67°
2026-05-06 21:00 59.53606 45.59893 34947 ft 528 kts 65°
2026-05-06 21:01 59.56279 45.73265 34945 ft 528 kts 65°
2026-05-06 21:01 59.58978 45.86831 34941 ft 528 kts 65°
2026-05-06 21:02 59.61606 46.00264 34936 ft 528 kts 66°
2026-05-06 21:02 59.64229 46.13829 34942 ft 528 kts 66°
2026-05-06 21:03 59.66840 46.27422 34962 ft 529 kts 66°
2026-05-06 21:03 59.69441 46.41050 34939 ft 530 kts 66°
2026-05-06 21:04 59.72032 46.54719 34946 ft 531 kts 66°
2026-05-06 21:04 59.74615 46.68436 34940 ft 532 kts 66°
2026-05-06 21:05 59.77190 46.82215 34939 ft 533 kts 66°
2026-05-06 21:05 59.79321 46.93693 34934 ft 534 kts 67°
2026-05-06 21:06 59.81878 47.07546 34929 ft 534 kts 67°
2026-05-06 21:06 59.84423 47.21440 34929 ft 535 kts 67°
2026-05-06 21:07 59.86950 47.35352 34922 ft 535 kts 67°
2026-05-06 21:07 59.89465 47.49303 34928 ft 535 kts 68°
2026-05-06 21:08 59.91965 47.63263 34919 ft 535 kts 68°
2026-05-06 21:08 59.94452 47.77246 34919 ft 535 kts 68°
2026-05-06 21:09 59.96923 47.91232 34911 ft 534 kts 68°
2026-05-06 21:09 59.99397 48.05227 34912 ft 534 kts 68°
2026-05-06 21:10 60.01855 48.19206 34914 ft 533 kts 68°
2026-05-06 21:10 60.04298 48.33217 34915 ft 533 kts 68°
2026-05-06 21:11 60.06722 48.47239 34912 ft 533 kts 68°
2026-05-06 21:11 60.09132 48.61282 34909 ft 533 kts 68°
2026-05-06 21:12 60.11526 48.75344 34911 ft 534 kts 68°
2026-05-06 21:12 60.13909 48.89446 34905 ft 534 kts 68°
2026-05-06 21:13 60.16280 49.03587 34901 ft 534 kts 69°
2026-05-06 21:13 60.18640 49.17757 34898 ft 535 kts 69°
2026-05-06 21:14 60.20936 49.31989 34896 ft 536 kts 70°
2026-05-06 21:14 60.23088 49.46365 34891 ft 537 kts 71°
2026-05-06 21:15 60.25209 49.60769 34891 ft 537 kts 71°
2026-05-06 21:15 60.27339 49.75191 34886 ft 537 kts 71°
2026-05-06 21:16 60.29467 49.89634 34883 ft 537 kts 71°
2026-05-06 21:16 60.31565 50.03988 34884 ft 537 kts 71°
2026-05-06 21:17 60.33661 50.18471 34887 ft 538 kts 71°
2026-05-06 21:17 60.35740 50.32970 34868 ft 538 kts 71°
2026-05-06 21:18 60.37804 50.47497 34869 ft 538 kts 71°
2026-05-06 21:18 60.39869 50.62157 34863 ft 538 kts 72°
2026-05-06 21:19 60.41892 50.76646 34867 ft 539 kts 72°
2026-05-06 21:19 60.43911 50.91245 34858 ft 539 kts 72°
2026-05-06 21:20 60.45919 51.05887 34858 ft 539 kts 72°
2026-05-06 21:20 60.47913 51.20545 34854 ft 540 kts 72°
2026-05-06 21:21 60.49903 51.35220 34848 ft 540 kts 72°
2026-05-06 21:21 60.51879 51.49913 34846 ft 539 kts 73°
2026-05-06 21:22 60.53838 51.64620 34847 ft 539 kts 73°
2026-05-06 21:22 60.55779 51.79334 34846 ft 539 kts 73°
2026-05-06 21:23 60.57706 51.94065 34837 ft 539 kts 73°
2026-05-06 21:23 60.59617 52.08807 34843 ft 539 kts 73°
2026-05-06 21:24 60.61510 52.23549 34838 ft 539 kts 74°
2026-05-06 21:24 60.63387 52.38316 34836 ft 538 kts 74°
2026-05-06 21:25 60.65247 52.53091 34840 ft 539 kts 74°
2026-05-06 21:25 60.67093 52.67905 34831 ft 539 kts 74°
2026-05-06 21:26 60.68922 52.82733 34837 ft 539 kts 75°
2026-05-06 21:26 60.70737 52.97589 34833 ft 540 kts 75°
2026-05-06 21:27 60.72536 53.12478 34833 ft 540 kts 75°
2026-05-06 21:27 60.74319 53.27376 34831 ft 540 kts 75°
2026-05-06 21:28 60.76075 53.42210 34825 ft 541 kts 75°
2026-05-06 21:28 60.77831 53.57172 34819 ft 541 kts 75°
2026-05-06 21:29 60.79594 53.72139 34815 ft 541 kts 75°
2026-05-06 21:29 60.81397 53.87083 34809 ft 540 kts 75°
2026-05-06 21:30 60.83190 54.02031 34808 ft 540 kts 75°
2026-05-06 21:30 60.84956 54.16995 34797 ft 540 kts 76°
2026-05-06 21:31 60.86701 54.31989 34801 ft 540 kts 76°
2026-05-06 21:31 60.88427 54.46981 34792 ft 540 kts 76°
2026-05-06 21:32 60.90135 54.61978 34785 ft 539 kts 76°
2026-05-06 21:32 60.92669 54.84521 34775 ft 539 kts 77°
2026-05-06 21:33 60.94336 54.99557 34775 ft 539 kts 77°
2026-05-06 21:33 60.95987 55.14617 34769 ft 540 kts 77°
2026-05-06 21:34 60.97622 55.29702 34760 ft 540 kts 77°
2026-05-06 21:34 60.99239 55.44791 34760 ft 540 kts 77°
2026-05-06 21:35 61.00841 55.59908 34752 ft 540 kts 77°
2026-05-06 21:35 61.02424 55.75029 34748 ft 539 kts 78°
2026-05-06 21:36 61.03990 55.90155 34741 ft 539 kts 78°
2026-05-06 21:36 61.05538 56.05290 34732 ft 539 kts 78°
2026-05-06 21:37 61.07058 56.20330 34725 ft 538 kts 78°
2026-05-06 21:37 61.08581 56.35577 34723 ft 538 kts 78°
2026-05-06 21:38 61.10065 56.50628 34721 ft 538 kts 79°
2026-05-06 21:38 61.11543 56.65792 34711 ft 538 kts 79°
2026-05-06 21:39 61.13003 56.80964 34708 ft 538 kts 79°
2026-05-06 21:39 61.14446 56.96153 34711 ft 538 kts 79°
2026-05-06 21:40 61.15875 57.11359 34695 ft 538 kts 79°
2026-05-06 21:40 61.17483 57.26458 34702 ft 537 kts 73°
2026-05-06 21:41 61.19695 57.41241 34692 ft 537 kts 72°
2026-05-06 21:41 61.21953 57.56015 34681 ft 537 kts 72°
2026-05-06 21:42 61.24158 57.70823 34680 ft 537 kts 73°
2026-05-06 21:42 61.26319 57.85667 34665 ft 537 kts 73°
2026-05-06 21:43 61.28460 58.00544 34672 ft 537 kts 73°
2026-05-06 21:43 61.30585 58.15423 34667 ft 537 kts 73°
2026-05-06 21:44 61.32695 58.30317 34669 ft 536 kts 73°
2026-05-06 21:44 61.34789 58.45231 34652 ft 536 kts 73°
2026-05-06 21:45 61.36865 58.60153 34650 ft 536 kts 73°
2026-05-06 21:45 61.38926 58.75103 34644 ft 536 kts 74°
2026-05-06 21:46 61.40965 58.90029 34647 ft 535 kts 74°
2026-05-06 21:46 61.42986 59.04971 34645 ft 534 kts 74°
2026-05-06 21:47 61.44990 59.19923 34635 ft 534 kts 74°
2026-05-06 21:47 61.46976 59.34881 34624 ft 533 kts 74°
2026-05-06 21:48 61.48942 59.49838 34614 ft 533 kts 75°
2026-05-06 21:48 61.50890 59.64795 34605 ft 532 kts 75°
2026-05-06 21:49 61.52821 59.79767 34605 ft 532 kts 75°
2026-05-06 21:49 61.54737 59.94752 34596 ft 532 kts 75°
2026-05-06 21:50 61.56641 60.09764 34592 ft 533 kts 75°
2026-05-06 21:50 61.58219 60.22263 34590 ft 533 kts 75°
2026-05-06 21:51 61.60106 60.37333 34586 ft 534 kts 75°
2026-05-06 21:51 61.61978 60.52447 34581 ft 535 kts 75°
2026-05-06 21:52 61.63834 60.67594 34583 ft 535 kts 75°
2026-05-06 21:52 61.65675 60.82770 34586 ft 536 kts 75°
2026-05-06 21:53 61.67506 60.98003 34575 ft 537 kts 76°
2026-05-06 21:53 61.69326 61.13251 34573 ft 537 kts 75°
2026-05-06 21:54 61.71142 61.28526 34583 ft 537 kts 76°
2026-05-06 21:54 61.72943 61.43823 34580 ft 537 kts 76°
2026-05-06 21:55 61.74713 61.59031 34576 ft 538 kts 76°
2026-05-06 21:55 61.76477 61.74360 34558 ft 538 kts 76°
2026-05-06 21:56 61.78225 61.89724 34577 ft 538 kts 76°
2026-05-06 21:56 61.79957 62.05109 34565 ft 538 kts 76°
2026-05-06 21:57 61.81672 62.20511 34575 ft 538 kts 76°
2026-05-06 21:57 61.83369 62.35928 34575 ft 538 kts 76°
2026-05-06 21:58 61.85048 62.51356 34577 ft 537 kts 76°
2026-05-06 21:58 61.86708 62.66782 34560 ft 537 kts 77°
2026-05-06 21:59 61.88351 62.82220 34575 ft 537 kts 77°
2026-05-06 21:59 61.89974 62.97660 34585 ft 536 kts 77°
2026-05-06 22:00 61.91581 63.13099 34573 ft 536 kts 77°
2026-05-06 22:00 61.93058 63.28583 34577 ft 535 kts 82°
2026-05-06 22:01 61.93509 63.44190 34562 ft 533 kts 90°
2026-05-06 22:01 61.93607 63.59923 34570 ft 532 kts 90°
2026-05-06 22:02 61.93723 63.75624 34561 ft 531 kts 89°
2026-05-06 22:02 61.93865 63.91308 34568 ft 531 kts 89°
2026-05-06 22:03 61.94000 64.06960 34572 ft 530 kts 90°
2026-05-06 22:03 61.94114 64.22627 34567 ft 531 kts 90°
2026-05-06 22:04 61.94207 64.38291 34577 ft 531 kts 90°
2026-05-06 22:04 61.94283 64.53966 34573 ft 530 kts 90°
2026-05-06 22:05 61.94341 64.69610 34564 ft 530 kts 90°
2026-05-06 22:05 61.94384 64.85249 34564 ft 529 kts 90°
2026-05-06 22:06 61.93987 65.00815 34576 ft 527 kts 96°
2026-05-06 22:06 61.93271 65.16299 34573 ft 527 kts 97°
2026-05-06 22:07 61.92537 65.31787 34570 ft 527 kts 97°
2026-05-06 22:07 61.91820 65.47274 34578 ft 528 kts 97°
2026-05-06 22:08 61.91099 65.62782 34579 ft 528 kts 97°
2026-05-06 22:08 61.90360 65.78291 34586 ft 529 kts 97°
2026-05-06 22:09 61.89602 65.93791 34586 ft 529 kts 97°
2026-05-06 22:09 61.88824 66.09299 34585 ft 529 kts 97°
2026-05-06 22:10 61.88029 66.24798 34585 ft 529 kts 97°
2026-05-06 22:10 61.87216 66.40286 34587 ft 529 kts 97°
2026-05-06 22:11 61.86387 66.55763 34589 ft 528 kts 97°
2026-05-06 22:11 61.85541 66.71207 34593 ft 528 kts 98°
2026-05-06 22:12 61.84684 66.86549 34593 ft 528 kts 98°
2026-05-06 22:12 61.83804 67.01979 34594 ft 528 kts 98°
2026-05-06 22:13 61.82907 67.17383 34595 ft 527 kts 98°
2026-05-06 22:13 61.81994 67.32770 34601 ft 527 kts 98°
2026-05-06 22:14 61.81064 67.48152 34603 ft 527 kts 98°
2026-05-06 22:14 61.80117 67.63508 34611 ft 527 kts 98°
2026-05-06 22:15 61.79154 67.78851 34609 ft 526 kts 98°
2026-05-06 22:15 61.78178 67.94167 34618 ft 526 kts 98°
2026-05-06 22:16 61.77550 68.09536 34619 ft 525 kts 90°
2026-05-06 22:16 61.78123 68.24882 34614 ft 524 kts 79°
2026-05-06 22:17 61.79482 68.40010 34622 ft 523 kts 78°
2026-05-06 22:17 61.80864 68.55115 34618 ft 523 kts 78°
2026-05-06 22:18 61.82190 68.70237 34626 ft 523 kts 79°
2026-05-06 22:18 61.83472 68.85367 34629 ft 522 kts 79°
2026-05-06 22:19 61.84731 69.00500 34634 ft 522 kts 79°
2026-05-06 22:19 61.85975 69.15631 34632 ft 521 kts 79°
2026-05-06 22:20 61.87195 69.30648 34631 ft 521 kts 79°
2026-05-06 22:20 61.88414 69.45869 34638 ft 520 kts 79°
2026-05-06 22:21 61.89606 69.60983 34637 ft 519 kts 80°
2026-05-06 22:21 61.90773 69.75994 34650 ft 519 kts 80°
2026-05-06 22:22 61.91931 69.91119 34652 ft 519 kts 80°
2026-05-06 22:22 61.93070 70.06228 34651 ft 518 kts 80°
2026-05-06 22:23 61.94194 70.21349 34655 ft 518 kts 80°
2026-05-06 22:23 61.95299 70.36468 34656 ft 518 kts 80°
2026-05-06 22:24 61.96388 70.51587 34660 ft 517 kts 81°
2026-05-06 22:24 61.97459 70.66703 34660 ft 517 kts 81°
2026-05-06 22:25 61.98513 70.81824 34665 ft 517 kts 81°
2026-05-06 22:25 61.99552 70.96943 34668 ft 516 kts 81°
2026-05-06 22:26 62.00575 71.12056 34671 ft 516 kts 81°
2026-05-06 22:26 62.01587 71.27179 34672 ft 516 kts 81°
2026-05-06 22:27 62.02584 71.42303 34675 ft 515 kts 81°
2026-05-06 22:27 62.03559 71.57420 34678 ft 515 kts 81°
2026-05-06 22:28 62.04515 71.72539 34680 ft 515 kts 81°
2026-05-06 22:28 62.05455 71.87667 34683 ft 515 kts 81°
2026-05-06 22:29 62.06381 72.02812 34687 ft 515 kts 81°
2026-05-06 22:29 62.07283 72.17852 34688 ft 515 kts 82°
2026-05-06 22:30 62.08175 72.33000 34690 ft 515 kts 82°
2026-05-06 22:30 62.09050 72.48163 34689 ft 515 kts 82°
2026-05-06 22:31 62.09909 72.63335 34694 ft 515 kts 82°
2026-05-06 22:31 62.10750 72.78499 34700 ft 515 kts 82°
2026-05-06 22:32 62.11575 72.93688 34698 ft 515 kts 82°
2026-05-06 22:32 62.12384 73.08878 34701 ft 514 kts 82°
2026-05-06 22:33 62.13176 73.24069 34701 ft 514 kts 82°
2026-05-06 22:33 62.13951 73.39266 34697 ft 514 kts 83°
2026-05-06 22:34 62.14711 73.54474 34705 ft 514 kts 83°
2026-05-06 22:34 62.15445 73.69678 34706 ft 514 kts 83°
2026-05-06 22:35 62.16136 73.84898 34712 ft 514 kts 83°
2026-05-06 22:35 62.16810 74.00115 34713 ft 514 kts 83°
2026-05-06 22:36 62.17472 74.15331 34715 ft 513 kts 83°
2026-05-06 22:36 62.18119 74.30555 34716 ft 513 kts 84°
2026-05-06 22:37 62.18750 74.45769 34712 ft 513 kts 84°
2026-05-06 22:37 62.19117 74.61030 34710 ft 513 kts 89°
2026-05-06 22:38 62.19032 74.76317 34709 ft 514 kts 90°
2026-05-06 22:38 62.18926 74.91608 34718 ft 514 kts 90°
2026-05-06 22:39 62.18843 75.06918 34708 ft 514 kts 90°
2026-05-06 22:39 62.18770 75.19631 34720 ft 514 kts 90°
2026-05-06 22:40 62.18662 75.34939 34714 ft 514 kts 90°
2026-05-06 22:40 62.18545 75.50240 34704 ft 515 kts 90°
2026-05-06 22:41 62.18343 75.73298 34715 ft 518 kts 91°
2026-05-06 22:42 62.18186 75.88730 34713 ft 519 kts 91°
2026-05-06 22:42 62.18011 76.04194 34710 ft 520 kts 91°
2026-05-06 22:43 62.17819 76.19665 34709 ft 520 kts 91°
2026-05-06 22:43 62.17610 76.35133 34704 ft 519 kts 91°
2026-05-06 22:44 62.17383 76.50568 34712 ft 519 kts 91°
2026-05-06 22:44 62.17140 76.65986 34711 ft 518 kts 91°
2026-05-06 22:45 62.16883 76.81265 34716 ft 517 kts 91°
2026-05-06 22:45 62.16606 76.96644 34716 ft 517 kts 92°
2026-05-06 22:46 62.16313 77.12005 34724 ft 517 kts 92°
2026-05-06 22:46 62.16006 77.27360 34724 ft 516 kts 92°
2026-05-06 22:47 62.15580 77.42691 34727 ft 517 kts 95°
2026-05-06 22:47 62.14873 77.57983 34732 ft 517 kts 95°
2026-05-06 22:48 62.14202 77.73284 34740 ft 517 kts 95°
2026-05-06 22:48 62.13542 77.88596 34747 ft 517 kts 95°
2026-05-06 22:49 62.12861 78.03898 34742 ft 518 kts 95°
2026-05-06 22:49 62.12162 78.19206 34753 ft 518 kts 95°
2026-05-06 22:50 62.11447 78.34511 34752 ft 518 kts 95°
2026-05-06 22:50 62.10715 78.49814 34757 ft 518 kts 96°
2026-05-06 22:51 62.09966 78.65106 34764 ft 518 kts 96°
2026-05-06 22:51 62.09200 78.80394 34760 ft 518 kts 96°
2026-05-06 22:52 62.08418 78.95666 34770 ft 518 kts 96°
2026-05-06 22:52 62.07619 79.10916 34768 ft 517 kts 96°
2026-05-06 22:53 62.06804 79.26171 34777 ft 517 kts 96°
2026-05-06 22:53 62.05972 79.41396 34776 ft 517 kts 96°
2026-05-06 22:54 62.05123 79.56619 34780 ft 517 kts 97°
2026-05-06 22:54 62.04259 79.71823 34782 ft 517 kts 97°
2026-05-06 22:55 62.03384 79.86910 34782 ft 516 kts 97°
2026-05-06 22:55 62.02486 80.02086 34785 ft 516 kts 97°
2026-05-06 22:56 62.01572 80.17249 34782 ft 516 kts 97°
2026-05-06 22:56 62.00642 80.32401 34790 ft 516 kts 97°
2026-05-06 22:57 61.99695 80.47549 34786 ft 516 kts 97°
2026-05-06 22:57 61.98731 80.62686 34790 ft 516 kts 97°
2026-05-06 22:58 61.97751 80.77812 34790 ft 516 kts 98°
2026-05-06 22:58 61.96754 80.92934 34795 ft 517 kts 98°
2026-05-06 22:59 61.95740 81.08047 34793 ft 517 kts 98°
2026-05-06 22:59 61.94709 81.23163 34798 ft 517 kts 98°
2026-05-06 23:00 61.93662 81.38266 34796 ft 517 kts 98°
2026-05-06 23:00 61.92596 81.53375 34800 ft 517 kts 98°
2026-05-06 23:01 61.91515 81.68470 34800 ft 517 kts 98°
2026-05-06 23:01 61.90417 81.83551 34807 ft 517 kts 99°
2026-05-06 23:02 61.89303 81.98626 34807 ft 517 kts 99°
2026-05-06 23:02 61.88179 82.13587 34812 ft 517 kts 99°
2026-05-06 23:03 61.87032 82.28638 34807 ft 517 kts 99°
2026-05-06 23:03 61.85869 82.43684 34817 ft 517 kts 99°
2026-05-06 23:04 61.84689 82.58709 34824 ft 517 kts 99°
2026-05-06 23:04 61.83497 82.73713 34819 ft 517 kts 99°
2026-05-06 23:05 61.82285 82.88699 34815 ft 517 kts 99°
2026-05-06 23:05 61.81053 83.03677 34814 ft 516 kts 100°
2026-05-06 23:06 61.79809 83.18633 34822 ft 516 kts 100°
2026-05-06 23:06 61.78551 83.33569 34818 ft 516 kts 100°
2026-05-06 23:07 61.77278 83.48498 34821 ft 516 kts 100°
2026-05-06 23:07 61.76575 83.63552 34825 ft 516 kts 90°
2026-05-06 23:08 61.76559 83.78590 34833 ft 516 kts 89°
2026-05-06 23:08 61.76541 83.93744 34827 ft 516 kts 90°
2026-05-06 23:09 61.76470 84.08901 34827 ft 516 kts 90°
2026-05-06 23:09 61.76361 84.24064 34831 ft 516 kts 91°
2026-05-06 23:10 61.76233 84.39210 34830 ft 516 kts 91°
2026-05-06 23:10 61.76090 84.54365 34839 ft 516 kts 91°
2026-05-06 23:11 61.75932 84.69519 34836 ft 516 kts 91°
2026-05-06 23:11 61.75758 84.84652 34840 ft 515 kts 91°
2026-05-06 23:12 61.75567 84.99771 34845 ft 515 kts 92°
2026-05-06 23:12 61.75359 85.14874 34842 ft 514 kts 92°
2026-05-06 23:13 61.75135 85.29963 34846 ft 514 kts 92°
2026-05-06 23:13 61.74895 85.45027 34842 ft 513 kts 92°
2026-05-06 23:14 61.74639 85.60071 34842 ft 512 kts 92°
2026-05-06 23:14 61.74367 85.75086 34849 ft 512 kts 92°
2026-05-06 23:15 61.74078 85.90087 34842 ft 511 kts 92°
2026-05-06 23:15 61.73776 86.04970 34850 ft 511 kts 93°
2026-05-06 23:16 61.73456 86.19934 34854 ft 511 kts 93°
2026-05-06 23:16 61.73119 86.34897 34854 ft 510 kts 93°
2026-05-06 23:17 61.72766 86.49847 34862 ft 510 kts 93°
2026-05-06 23:17 61.72397 86.64794 34856 ft 510 kts 93°
2026-05-06 23:18 61.72012 86.79732 34858 ft 510 kts 93°
2026-05-06 23:18 61.71611 86.94673 34857 ft 510 kts 94°
2026-05-06 23:19 61.71194 87.09586 34859 ft 510 kts 94°
2026-05-06 23:19 61.70761 87.24494 34861 ft 509 kts 94°
2026-05-06 23:20 61.70312 87.39397 34865 ft 509 kts 94°
2026-05-06 23:20 61.69850 87.54276 34868 ft 509 kts 94°
2026-05-06 23:21 61.69366 87.69135 34867 ft 508 kts 94°
2026-05-06 23:21 61.68865 87.83973 34870 ft 508 kts 94°
2026-05-06 23:22 61.68350 87.98804 34871 ft 507 kts 94°
2026-05-06 23:22 61.67821 88.13596 34872 ft 507 kts 94°
2026-05-06 23:23 61.67276 88.28391 34871 ft 506 kts 95°
2026-05-06 23:23 61.66715 88.43164 34873 ft 506 kts 95°
2026-05-06 23:24 61.66143 88.57826 34879 ft 506 kts 95°
2026-05-06 23:24 61.65552 88.72563 34876 ft 506 kts 95°
2026-05-06 23:25 61.64946 88.87294 34875 ft 505 kts 95°
2026-05-06 23:25 61.64326 89.02009 34878 ft 505 kts 95°
2026-05-06 23:26 61.63701 89.16730 34879 ft 505 kts 95°
2026-05-06 23:26 61.63079 89.31419 34887 ft 505 kts 95°
2026-05-06 23:27 61.62439 89.46114 34887 ft 505 kts 95°
2026-05-06 23:27 61.61783 89.60798 34890 ft 505 kts 95°
2026-05-06 23:28 61.61110 89.75471 34888 ft 505 kts 96°
2026-05-06 23:28 61.60423 89.90148 34893 ft 505 kts 96°
2026-05-06 23:29 61.59519 90.04749 34890 ft 504 kts 103°
2026-05-06 23:29 61.58035 90.16573 34900 ft 503 kts 106°
2026-05-06 23:30 61.56141 90.30723 34893 ft 504 kts 106°
2026-05-06 23:30 61.54279 90.44884 34896 ft 504 kts 106°
2026-05-06 23:31 61.52429 90.59050 34898 ft 504 kts 106°
2026-05-06 23:31 61.50568 90.73186 34904 ft 503 kts 106°
2026-05-06 23:32 61.48692 90.87293 34904 ft 503 kts 106°
2026-05-06 23:32 61.46812 91.01384 34910 ft 503 kts 106°
2026-05-06 23:33 61.44932 91.15465 34911 ft 502 kts 106°
2026-05-06 23:33 61.43043 91.29501 34913 ft 502 kts 106°
2026-05-06 23:34 61.41151 91.43428 34922 ft 501 kts 106°
2026-05-06 23:34 61.39233 91.57417 34923 ft 501 kts 106°
2026-05-06 23:35 61.37303 91.71368 34931 ft 501 kts 106°
2026-05-06 23:35 61.35358 91.85305 34933 ft 500 kts 107°
2026-05-06 23:36 61.33402 91.99205 34936 ft 500 kts 107°
2026-05-06 23:36 61.31434 92.13074 34941 ft 500 kts 107°
2026-05-06 23:37 61.29450 92.26931 34946 ft 499 kts 107°
2026-05-06 23:37 61.27454 92.40766 34945 ft 499 kts 107°
2026-05-06 23:38 61.25443 92.54581 34948 ft 499 kts 107°
2026-05-06 23:38 61.23420 92.68371 34952 ft 499 kts 107°
2026-05-06 23:39 61.21383 92.82137 34950 ft 499 kts 107°
2026-05-06 23:39 61.19333 92.95884 34956 ft 499 kts 107°
2026-05-06 23:40 61.17270 93.09610 34953 ft 499 kts 107°
2026-05-06 23:40 61.15193 93.23310 34955 ft 498 kts 108°
2026-05-06 23:41 61.13103 93.36996 34957 ft 499 kts 108°
2026-05-06 23:41 61.10998 93.50661 34958 ft 498 kts 108°
2026-05-06 23:42 61.08896 93.64209 34957 ft 498 kts 108°
2026-05-06 23:42 61.06766 93.77828 34962 ft 498 kts 108°
2026-05-06 23:43 61.04623 93.91424 34967 ft 498 kts 108°
2026-05-06 23:43 61.02468 94.04994 34967 ft 498 kts 108°
2026-05-06 23:44 61.00296 94.18561 34973 ft 498 kts 108°
2026-05-06 23:44 60.98115 94.32087 34976 ft 498 kts 108°
2026-05-06 23:45 60.95916 94.45617 34975 ft 498 kts 109°
2026-05-06 23:45 60.93705 94.59120 34974 ft 498 kts 109°
2026-05-06 23:46 60.91481 94.72606 34973 ft 498 kts 109°
2026-05-06 23:46 60.89243 94.86069 34969 ft 498 kts 109°
2026-05-06 23:47 60.86992 94.99516 34974 ft 498 kts 109°
2026-05-06 23:47 60.84728 95.12940 34971 ft 498 kts 109°
2026-05-06 23:48 60.82449 95.26353 34976 ft 498 kts 109°
2026-05-06 23:48 60.80158 95.39746 34971 ft 498 kts 109°
2026-05-06 23:49 60.77853 95.53121 34977 ft 498 kts 109°
2026-05-06 23:49 60.75536 95.66469 34981 ft 498 kts 109°
2026-05-06 23:50 60.73206 95.79800 34974 ft 498 kts 109°
2026-05-06 23:50 60.69694 95.99664 34976 ft 498 kts 110°
2026-05-06 23:51 60.67295 96.12917 34974 ft 498 kts 110°
2026-05-06 23:51 60.64915 96.26171 34974 ft 498 kts 110°
2026-05-06 23:52 60.62542 96.39426 34977 ft 498 kts 110°
2026-05-06 23:52 60.60155 96.52664 34977 ft 498 kts 110°
2026-05-06 23:53 60.57751 96.65883 34974 ft 498 kts 110°
2026-05-06 23:53 60.55331 96.79081 34982 ft 498 kts 110°
2026-05-06 23:54 60.52896 96.92277 34976 ft 499 kts 110°
2026-05-06 23:54 60.50449 97.05444 34978 ft 499 kts 110°
2026-05-06 23:55 60.47986 97.18610 34975 ft 499 kts 110°
2026-05-06 23:55 60.45510 97.31752 34977 ft 499 kts 111°
2026-05-06 23:56 60.43019 97.44889 34972 ft 500 kts 111°
2026-05-06 23:56 60.40515 97.58009 34969 ft 500 kts 111°
2026-05-06 23:57 60.37995 97.71118 34970 ft 500 kts 111°
2026-05-06 23:57 60.35462 97.84212 34966 ft 500 kts 111°
2026-05-06 23:58 60.32916 97.97285 34967 ft 500 kts 111°
2026-05-06 23:58 60.30356 98.10341 34970 ft 501 kts 111°
2026-05-06 23:59 60.27781 98.23393 34964 ft 501 kts 111°
2026-05-06 23:59 60.25195 98.36415 34966 ft 501 kts 111°
2026-05-07 00:00 60.22594 98.49425 34969 ft 501 kts 111°
2026-05-07 00:00 60.20420 98.60235 34964 ft 501 kts 111°
2026-05-07 00:01 60.17349 98.75409 34969 ft 502 kts 112°
2026-05-07 00:01 60.14708 98.88368 34966 ft 502 kts 112°
2026-05-07 00:02 60.12070 99.01230 34967 ft 502 kts 112°
2026-05-07 00:02 60.09401 99.14159 34960 ft 502 kts 112°
2026-05-07 00:03 60.06717 99.27078 34961 ft 502 kts 112°
2026-05-07 00:03 60.04021 99.39978 34966 ft 502 kts 112°
2026-05-07 00:04 60.01311 99.52859 34974 ft 503 kts 112°
2026-05-07 00:04 59.98588 99.65723 34966 ft 503 kts 112°
2026-05-07 00:05 59.95850 99.78580 34968 ft 503 kts 112°
2026-05-07 00:05 59.93096 99.91431 34969 ft 504 kts 112°
2026-05-07 00:06 59.90329 100.04258 34967 ft 504 kts 112°
2026-05-07 00:06 59.87549 100.17070 34968 ft 504 kts 113°
2026-05-07 00:07 59.84755 100.29870 34968 ft 504 kts 113°
2026-05-07 00:07 59.81946 100.42658 34968 ft 505 kts 113°
2026-05-07 00:08 59.79125 100.55425 34971 ft 505 kts 113°
2026-05-07 00:08 59.76310 100.68085 34968 ft 505 kts 113°
2026-05-07 00:09 59.73465 100.80811 34965 ft 505 kts 113°
2026-05-07 00:09 59.70607 100.93525 34966 ft 505 kts 113°
2026-05-07 00:10 59.67735 101.06209 34967 ft 505 kts 114°
2026-05-07 00:10 59.64830 101.18862 34965 ft 505 kts 114°
2026-05-07 00:11 59.61907 101.31490 34967 ft 505 kts 114°
2026-05-07 00:11 59.58977 101.44089 34961 ft 505 kts 114°
2026-05-07 00:12 59.56036 101.56678 34966 ft 506 kts 114°
2026-05-07 00:12 59.53077 101.69272 34966 ft 506 kts 114°
2026-05-07 00:13 59.50109 101.81831 34965 ft 506 kts 114°
2026-05-07 00:13 59.47128 101.94372 34962 ft 506 kts 114°
2026-05-07 00:14 59.44132 102.06901 34962 ft 506 kts 114°
2026-05-07 00:14 59.41126 102.19402 34961 ft 506 kts 114°
2026-05-07 00:15 59.38125 102.31809 34963 ft 506 kts 115°
2026-05-07 00:15 59.35093 102.44274 34970 ft 506 kts 115°
2026-05-07 00:16 59.32050 102.56710 34965 ft 506 kts 115°
2026-05-07 00:16 59.28996 102.69126 34972 ft 506 kts 115°
2026-05-07 00:17 59.25931 102.81514 34972 ft 506 kts 115°
2026-05-07 00:17 59.22853 102.93880 34971 ft 506 kts 115°
2026-05-07 00:18 59.19763 103.06230 34977 ft 506 kts 115°
2026-05-07 00:18 59.16664 103.18549 34975 ft 506 kts 115°
2026-05-07 00:19 59.13549 103.30860 34980 ft 506 kts 115°
2026-05-07 00:19 59.10424 103.43145 34974 ft 506 kts 115°
2026-05-07 00:20 59.07818 103.53335 34976 ft 506 kts 115°
2026-05-07 00:20 59.04670 103.65588 34978 ft 507 kts 116°
2026-05-07 00:21 59.01513 103.77819 34985 ft 507 kts 116°
2026-05-07 00:21 58.98657 103.90283 34983 ft 505 kts 107°
2026-05-07 00:22 58.96686 104.03336 34990 ft 504 kts 104°
2026-05-07 00:22 58.94758 104.16399 34985 ft 505 kts 104°
2026-05-07 00:23 58.92781 104.29447 34986 ft 505 kts 105°
2026-05-07 00:23 58.90771 104.42467 34988 ft 505 kts 105°
2026-05-07 00:24 58.88745 104.55462 34992 ft 505 kts 105°
2026-05-07 00:24 58.86706 104.68448 34999 ft 505 kts 105°
2026-05-07 00:25 58.84657 104.81413 34993 ft 504 kts 105°
2026-05-07 00:25 58.82596 104.94357 34997 ft 504 kts 105°
2026-05-07 00:26 58.80526 105.07269 35001 ft 504 kts 105°
2026-05-07 00:26 58.78441 105.20169 35007 ft 504 kts 105°
2026-05-07 00:27 58.76359 105.32958 35003 ft 503 kts 106°
2026-05-07 00:27 58.74252 105.45807 35005 ft 503 kts 106°
2026-05-07 00:28 58.72134 105.58635 35009 ft 503 kts 106°
2026-05-07 00:28 58.70002 105.71449 35020 ft 503 kts 106°
2026-05-07 00:29 58.67859 105.84239 35014 ft 503 kts 106°
2026-05-07 00:30 58.63538 106.09757 35023 ft 502 kts 106°
2026-05-07 00:30 58.61357 106.22507 35015 ft 502 kts 107°
2026-05-07 00:31 58.59165 106.35236 35026 ft 502 kts 107°
2026-05-07 00:31 58.56964 106.47936 35022 ft 502 kts 107°
2026-05-07 00:32 58.54760 106.60619 35016 ft 502 kts 107°
2026-05-07 00:32 58.52547 106.73297 35028 ft 502 kts 107°
2026-05-07 00:33 58.50326 106.85936 35020 ft 501 kts 107°
2026-05-07 00:33 58.48091 106.98562 35044 ft 501 kts 107°
2026-05-07 00:34 58.45843 107.11174 35025 ft 501 kts 107°
2026-05-07 00:34 58.43585 107.23756 35034 ft 501 kts 107°
2026-05-07 00:35 58.41315 107.36323 35034 ft 501 kts 107°
2026-05-07 00:35 58.39032 107.48871 35035 ft 501 kts 107°
2026-05-07 00:36 58.36740 107.61394 35041 ft 500 kts 107°
2026-05-07 00:36 58.34434 107.73902 35043 ft 500 kts 107°
2026-05-07 00:37 58.32120 107.86381 35041 ft 500 kts 107°
2026-05-07 00:37 58.29793 107.98840 35048 ft 500 kts 107°
2026-05-07 00:38 58.27458 108.11265 35050 ft 499 kts 107°
2026-05-07 00:38 58.25107 108.23688 35045 ft 499 kts 107°
2026-05-07 00:39 58.22751 108.36068 35050 ft 499 kts 107°
2026-05-07 00:39 58.20382 108.48431 35050 ft 499 kts 108°
2026-05-07 00:40 58.18019 108.60688 35044 ft 498 kts 108°
2026-05-07 00:40 58.15613 108.73084 35054 ft 498 kts 108°
2026-05-07 00:41 58.13229 108.85294 35058 ft 498 kts 108°
2026-05-07 00:41 58.10818 108.97567 35055 ft 498 kts 108°
2026-05-07 00:42 58.08396 109.09815 35068 ft 497 kts 108°
2026-05-07 00:42 58.05964 109.22041 35056 ft 497 kts 108°
2026-05-07 00:43 58.03521 109.34244 35058 ft 497 kts 108°
2026-05-07 00:43 58.01068 109.46426 35074 ft 496 kts 108°
2026-05-07 00:44 57.98607 109.58575 35065 ft 496 kts 108°
2026-05-07 00:44 57.96132 109.70722 35070 ft 496 kts 108°
2026-05-07 00:45 57.93651 109.82833 35073 ft 496 kts 108°
2026-05-07 00:45 57.91161 109.94919 35073 ft 495 kts 108°
2026-05-07 00:46 57.88665 110.06989 35083 ft 495 kts 108°
2026-05-07 00:46 57.86161 110.19034 35082 ft 495 kts 109°
2026-05-07 00:47 57.83647 110.31058 35090 ft 494 kts 109°
2026-05-07 00:47 57.81124 110.43050 35101 ft 494 kts 109°
2026-05-07 00:48 57.78591 110.55016 35093 ft 494 kts 109°
2026-05-07 00:48 57.76050 110.66957 35107 ft 493 kts 109°
2026-05-07 00:49 57.73500 110.78869 35104 ft 493 kts 109°
2026-05-07 00:49 57.70938 110.90763 35105 ft 493 kts 109°
2026-05-07 00:50 57.68366 111.02646 35104 ft 493 kts 109°
2026-05-07 00:50 57.65786 111.14503 35101 ft 492 kts 109°
2026-05-07 00:51 57.63211 111.26338 35104 ft 492 kts 109°
2026-05-07 00:51 57.60699 111.38203 35115 ft 491 kts 108°
2026-05-07 00:52 57.58183 111.50057 35112 ft 492 kts 109°
2026-05-07 00:52 57.55647 111.61889 35110 ft 491 kts 109°
2026-05-07 00:53 57.53103 111.73680 35113 ft 491 kts 109°
2026-05-07 00:53 57.50547 111.85458 35114 ft 491 kts 109°
2026-05-07 00:54 57.48000 111.97141 35109 ft 491 kts 109°
2026-05-07 00:54 57.45427 112.08887 35125 ft 491 kts 109°
2026-05-07 00:55 57.42829 112.20688 35124 ft 491 kts 109°
2026-05-07 00:55 57.40236 112.32401 35121 ft 491 kts 109°
2026-05-07 00:56 57.37629 112.44106 35123 ft 491 kts 109°
2026-05-07 00:56 57.35028 112.55724 35128 ft 491 kts 109°
2026-05-07 00:57 57.32401 112.67394 35132 ft 492 kts 110°
2026-05-07 00:57 57.29742 112.79137 35130 ft 492 kts 110°
2026-05-07 00:58 57.27107 112.90709 35128 ft 492 kts 110°
2026-05-07 00:58 57.24444 113.02345 35134 ft 491 kts 110°
2026-05-07 00:59 57.20433 113.19744 35133 ft 491 kts 110°
2026-05-07 01:00 57.17749 113.31312 35141 ft 491 kts 110°
2026-05-07 01:00 57.15054 113.42862 35121 ft 491 kts 110°
2026-05-07 01:01 57.12349 113.54396 35139 ft 491 kts 111°
2026-05-07 01:01 57.09631 113.65921 35118 ft 491 kts 111°
2026-05-07 01:02 57.06903 113.77428 35126 ft 491 kts 111°
2026-05-07 01:02 57.04160 113.88937 35127 ft 491 kts 111°
2026-05-07 01:03 57.01409 114.00419 35116 ft 492 kts 111°
2026-05-07 01:03 56.98643 114.11899 35123 ft 492 kts 111°
2026-05-07 01:04 56.95871 114.23345 35124 ft 491 kts 111°
2026-05-07 01:04 56.93089 114.34772 35132 ft 491 kts 111°
2026-05-07 01:05 56.90295 114.46190 35126 ft 491 kts 112°
2026-05-07 01:05 56.87495 114.57574 35126 ft 491 kts 112°
2026-05-07 01:06 56.85162 114.67010 35133 ft 490 kts 112°
2026-05-07 01:06 56.82344 114.78357 35122 ft 490 kts 112°
2026-05-07 01:07 56.79522 114.89661 35124 ft 490 kts 112°
2026-05-07 01:07 56.76689 115.00955 35130 ft 490 kts 112°
2026-05-07 01:08 56.73846 115.12229 35126 ft 490 kts 112°
2026-05-07 01:08 56.70986 115.23512 35127 ft 490 kts 112°
2026-05-07 01:09 56.68118 115.34770 35129 ft 490 kts 112°
2026-05-07 01:09 56.65238 115.46020 35134 ft 491 kts 113°
2026-05-07 01:10 56.62349 115.57247 35127 ft 491 kts 113°
2026-05-07 01:10 56.59449 115.68458 35136 ft 491 kts 113°
2026-05-07 01:11 56.56538 115.79655 35132 ft 491 kts 113°
2026-05-07 01:11 56.53614 115.90851 35135 ft 491 kts 113°
2026-05-07 01:12 56.50701 116.01946 35144 ft 491 kts 114°
2026-05-07 01:12 56.47753 116.13117 35134 ft 492 kts 114°
2026-05-07 01:13 56.44797 116.24265 35135 ft 492 kts 114°
2026-05-07 01:13 56.41830 116.35402 35126 ft 492 kts 114°
2026-05-07 01:14 56.38851 116.46528 35135 ft 492 kts 114°
2026-05-07 01:14 56.35860 116.57644 35131 ft 492 kts 114°
2026-05-07 01:15 56.32862 116.68731 35132 ft 492 kts 114°
2026-05-07 01:15 56.29849 116.79818 35135 ft 493 kts 114°
2026-05-07 01:16 56.26826 116.90890 35141 ft 493 kts 114°
2026-05-07 01:16 56.23790 117.01957 35135 ft 493 kts 115°
2026-05-07 01:17 56.20742 117.13011 35132 ft 494 kts 115°
2026-05-07 01:17 56.17686 117.24045 35124 ft 494 kts 115°
2026-05-07 01:18 56.14614 117.35080 35125 ft 494 kts 115°
2026-05-07 01:18 56.11534 117.46089 35117 ft 494 kts 115°
2026-05-07 01:19 56.08447 117.57076 35119 ft 493 kts 115°
2026-05-07 01:19 56.05350 117.68041 35120 ft 494 kts 115°
2026-05-07 01:20 56.02247 117.78980 35119 ft 493 kts 115°
2026-05-07 01:20 55.99133 117.89903 35113 ft 493 kts 115°
2026-05-07 01:21 55.96008 118.00814 35113 ft 493 kts 115°
2026-05-07 01:21 55.92897 118.11624 35095 ft 493 kts 115°
2026-05-07 01:22 55.89758 118.22486 35096 ft 493 kts 115°
2026-05-07 01:22 55.86601 118.33354 35095 ft 494 kts 115°
2026-05-07 01:23 55.83441 118.44185 35100 ft 493 kts 115°
2026-05-07 01:23 55.80267 118.55011 35097 ft 493 kts 115°
2026-05-07 01:24 55.77089 118.65803 35104 ft 493 kts 115°
2026-05-07 01:24 55.73897 118.76586 35102 ft 493 kts 115°
2026-05-07 01:25 55.70701 118.87344 35094 ft 493 kts 115°
2026-05-07 01:25 55.67494 118.98085 35095 ft 493 kts 115°
2026-05-07 01:26 55.64276 119.08810 35094 ft 493 kts 115°
2026-05-07 01:26 55.61055 119.19505 35093 ft 492 kts 115°
2026-05-07 01:27 55.57824 119.30178 35088 ft 492 kts 115°
2026-05-07 01:27 55.54585 119.40829 35087 ft 492 kts 115°
2026-05-07 01:28 55.51358 119.51396 35081 ft 492 kts 115°
2026-05-07 01:28 55.48107 119.61996 35083 ft 491 kts 115°
2026-05-07 01:29 55.44845 119.72580 35086 ft 491 kts 116°
2026-05-07 01:29 55.41578 119.83135 35089 ft 491 kts 116°
2026-05-07 01:30 55.38301 119.93676 35091 ft 491 kts 116°
2026-05-07 01:30 55.35015 120.04199 35083 ft 491 kts 116°
2026-05-07 01:31 55.31721 120.14701 35089 ft 491 kts 116°
2026-05-07 01:31 55.28419 120.25182 35090 ft 491 kts 116°
2026-05-07 01:32 55.25106 120.35651 35085 ft 491 kts 116°
2026-05-07 01:32 55.21792 120.46082 35089 ft 491 kts 116°
2026-05-07 01:33 55.18459 120.56524 35093 ft 491 kts 116°
2026-05-07 01:33 55.15119 120.66945 35088 ft 491 kts 116°
2026-05-07 01:34 55.11771 120.77342 35089 ft 491 kts 116°
2026-05-07 01:34 55.08415 120.87722 35093 ft 491 kts 116°
2026-05-07 01:35 55.05050 120.98082 35085 ft 491 kts 116°
2026-05-07 01:35 55.01679 121.08420 35093 ft 491 kts 116°
2026-05-07 01:36 54.98299 121.18740 35087 ft 490 kts 116°
2026-05-07 01:36 54.94932 121.28976 35092 ft 490 kts 116°
2026-05-07 01:37 54.91535 121.39260 35082 ft 491 kts 116°
2026-05-07 01:37 54.88128 121.49532 35094 ft 490 kts 116°
2026-05-07 01:38 54.84696 121.59835 35090 ft 490 kts 117°
2026-05-07 01:38 54.81274 121.70064 35087 ft 490 kts 117°
2026-05-07 01:39 54.77868 121.80204 35091 ft 490 kts 117°
2026-05-07 01:39 54.74435 121.90384 35086 ft 489 kts 117°
2026-05-07 01:40 54.70994 122.00544 35094 ft 489 kts 117°
2026-05-07 01:40 54.67548 122.10683 35092 ft 489 kts 117°
2026-05-07 01:41 54.64273 122.20956 35083 ft 487 kts 114°
2026-05-07 01:41 54.61190 122.31356 35080 ft 487 kts 114°
2026-05-07 01:42 54.58085 122.41738 35082 ft 487 kts 114°
2026-05-07 01:42 54.54953 122.52090 35079 ft 487 kts 114°
2026-05-07 01:43 54.51784 122.62393 35087 ft 487 kts 114°
2026-05-07 01:43 54.48591 122.72675 35066 ft 488 kts 115°
2026-05-07 01:44 54.45389 122.82958 35064 ft 488 kts 115°
2026-05-07 01:44 54.42184 122.93226 35071 ft 487 kts 115°
2026-05-07 01:45 54.38975 123.03463 35070 ft 487 kts 115°
2026-05-07 01:45 54.35753 123.13699 35067 ft 487 kts 115°
2026-05-07 01:46 54.32544 123.23847 35058 ft 488 kts 115°
2026-05-07 01:46 54.29306 123.34048 35062 ft 488 kts 115°
2026-05-07 01:47 54.26058 123.44239 35060 ft 488 kts 115°
2026-05-07 01:47 54.22800 123.54420 35056 ft 488 kts 115°
2026-05-07 01:48 54.19530 123.64583 35051 ft 488 kts 115°
2026-05-07 01:48 54.16254 123.74715 35050 ft 487 kts 116°
2026-05-07 01:49 54.12974 123.84826 35060 ft 487 kts 116°
2026-05-07 01:49 54.09683 123.94934 35055 ft 488 kts 116°
2026-05-07 01:50 54.06386 124.05016 35042 ft 487 kts 116°
2026-05-07 01:50 54.03083 124.15076 35047 ft 487 kts 116°
2026-05-07 01:51 53.99771 124.25123 35052 ft 487 kts 116°
2026-05-07 01:51 53.96454 124.35144 35046 ft 487 kts 116°
2026-05-07 01:52 53.93120 124.45174 35036 ft 488 kts 116°
2026-05-07 01:52 53.89776 124.55196 35043 ft 488 kts 116°
2026-05-07 01:53 53.86424 124.65206 35041 ft 489 kts 116°
2026-05-07 01:53 53.83056 124.75209 35038 ft 489 kts 117°
2026-05-07 01:54 53.79672 124.85200 35034 ft 489 kts 117°
2026-05-07 01:54 53.76854 124.93496 35034 ft 490 kts 117°
2026-05-07 01:55 53.73453 125.03471 35030 ft 490 kts 117°
2026-05-07 01:55 53.70044 125.13437 35024 ft 490 kts 117°
2026-05-07 01:56 53.66625 125.23389 35027 ft 490 kts 117°
2026-05-07 01:56 53.63200 125.33320 35028 ft 490 kts 117°
2026-05-07 01:57 53.59762 125.43245 35031 ft 491 kts 117°
2026-05-07 01:57 53.56317 125.53157 35028 ft 491 kts 117°
2026-05-07 01:58 53.52885 125.62990 35011 ft 491 kts 118°
2026-05-07 01:58 53.49402 125.72937 35020 ft 491 kts 118°
2026-05-07 01:59 53.45784 125.82568 35011 ft 493 kts 124°
2026-05-07 01:59 53.41554 125.91606 35011 ft 493 kts 126°
2026-05-07 02:00 53.37280 126.00594 35012 ft 493 kts 126°
2026-05-07 02:00 53.33023 126.09612 35007 ft 494 kts 126°
2026-05-07 02:01 53.28780 126.18619 35009 ft 494 kts 126°
2026-05-07 02:01 53.24520 126.27641 35011 ft 495 kts 126°
2026-05-07 02:02 53.20249 126.36654 35004 ft 495 kts 126°
2026-05-07 02:02 53.15962 126.45661 35003 ft 496 kts 126°
2026-05-07 02:03 53.11660 126.54668 35005 ft 497 kts 126°
2026-05-07 02:03 53.07350 126.63656 34997 ft 497 kts 127°
2026-05-07 02:04 53.03035 126.72625 34996 ft 497 kts 127°
2026-05-07 02:04 52.98710 126.81585 35001 ft 497 kts 127°
2026-05-07 02:05 52.94375 126.90536 34991 ft 498 kts 127°
2026-05-07 02:05 52.90031 126.99470 34988 ft 498 kts 127°
2026-05-07 02:06 52.85684 127.08386 34987 ft 498 kts 127°
2026-05-07 02:06 52.81320 127.17294 34981 ft 498 kts 127°
2026-05-07 02:07 52.76958 127.26177 34980 ft 498 kts 128°
2026-05-07 02:07 52.70429 127.39426 34974 ft 498 kts 128°
2026-05-07 02:08 52.66043 127.48266 34971 ft 498 kts 128°
2026-05-07 02:08 52.61622 127.57061 34971 ft 498 kts 128°
2026-05-07 02:09 52.57196 127.65828 34971 ft 498 kts 128°
2026-05-07 02:09 52.52763 127.74593 34959 ft 498 kts 128°
2026-05-07 02:10 52.48328 127.83340 34958 ft 499 kts 129°
2026-05-07 02:10 52.43886 127.92072 34956 ft 499 kts 129°
2026-05-07 02:11 52.39431 128.00796 34953 ft 500 kts 129°
2026-05-07 02:11 52.34965 128.09511 34946 ft 500 kts 129°
2026-05-07 02:12 52.30483 128.18231 34946 ft 501 kts 129°
2026-05-07 02:12 52.25988 128.26949 34941 ft 502 kts 129°
2026-05-07 02:13 52.21478 128.35656 34936 ft 502 kts 129°
2026-05-07 02:13 52.16961 128.44349 34937 ft 503 kts 129°
2026-05-07 02:14 52.12436 128.53030 34932 ft 503 kts 130°
2026-05-07 02:14 52.07903 128.61694 34925 ft 504 kts 130°
2026-05-07 02:15 52.03354 128.70362 34921 ft 504 kts 130°
2026-05-07 02:15 51.98796 128.79018 34924 ft 504 kts 130°
2026-05-07 02:16 51.94231 128.87657 34922 ft 504 kts 130°
2026-05-07 02:16 51.89656 128.96284 34915 ft 505 kts 130°
2026-05-07 02:17 51.85072 129.04898 34924 ft 505 kts 130°
2026-05-07 02:17 51.80477 129.13502 34915 ft 505 kts 131°
2026-05-07 02:18 51.75908 129.22028 34912 ft 505 kts 131°
2026-05-07 02:18 51.71307 129.30588 34909 ft 505 kts 131°
2026-05-07 02:19 51.66698 129.39136 34908 ft 504 kts 131°
2026-05-07 02:19 51.62092 129.47648 34913 ft 504 kts 131°
2026-05-07 02:20 51.57487 129.56129 34910 ft 503 kts 131°
2026-05-07 02:20 51.52876 129.64592 34909 ft 503 kts 131°
2026-05-07 02:21 51.48259 129.73039 34904 ft 503 kts 132°
2026-05-07 02:21 51.43636 129.81466 34908 ft 503 kts 132°
2026-05-07 02:22 51.39004 129.89885 34900 ft 504 kts 132°
2026-05-07 02:22 51.34368 129.98291 34904 ft 504 kts 132°
2026-05-07 02:23 51.29690 130.06621 34905 ft 504 kts 133°
2026-05-07 02:23 51.24949 130.14867 34905 ft 504 kts 134°
2026-05-07 02:24 51.20202 130.23100 34899 ft 504 kts 134°
2026-05-07 02:24 51.15454 130.31337 34897 ft 505 kts 134°
2026-05-07 02:25 51.10703 130.39567 34895 ft 505 kts 134°
2026-05-07 02:25 51.05943 130.47783 34899 ft 505 kts 134°
2026-05-07 02:26 51.01204 130.55938 34891 ft 506 kts 134°
2026-05-07 02:26 50.96426 130.64128 34894 ft 506 kts 134°
2026-05-07 02:27 50.91636 130.72315 34892 ft 506 kts 134°
2026-05-07 02:27 50.86842 130.80487 34885 ft 507 kts 134°
2026-05-07 02:28 50.82032 130.88656 34878 ft 507 kts 135°
2026-05-07 02:28 50.77211 130.96800 34879 ft 508 kts 135°
2026-05-07 02:29 50.72375 131.04944 34875 ft 508 kts 135°
2026-05-07 02:29 50.67540 131.13061 34873 ft 508 kts 135°
2026-05-07 02:30 50.62696 131.21172 34871 ft 507 kts 135°
2026-05-07 02:30 50.57856 131.29250 34871 ft 507 kts 135°
2026-05-07 02:31 50.53012 131.37307 34867 ft 507 kts 135°
2026-05-07 02:31 50.48170 131.45338 34865 ft 507 kts 135°
2026-05-07 02:32 50.43317 131.53359 34866 ft 507 kts 136°
2026-05-07 02:32 50.38452 131.61375 34856 ft 507 kts 136°
2026-05-07 02:33 50.33586 131.69369 34852 ft 507 kts 136°
2026-05-07 02:33 50.28713 131.77348 34862 ft 508 kts 136°
2026-05-07 02:34 50.23859 131.85274 34866 ft 508 kts 136°
2026-05-07 02:34 50.18964 131.93240 34857 ft 508 kts 136°
2026-05-07 02:35 50.14062 132.01182 34854 ft 508 kts 137°
2026-05-07 02:35 50.09120 132.09168 34853 ft 508 kts 137°
2026-05-07 02:36 50.04292 132.17108 34855 ft 510 kts 133°
2026-05-07 02:36 50.00162 132.26095 34852 ft 513 kts 124°
2026-05-07 02:37 49.96432 132.35577 34847 ft 514 kts 124°
2026-05-07 02:37 49.92680 132.45041 34847 ft 515 kts 124°
2026-05-07 02:38 49.88887 132.54469 34842 ft 515 kts 125°
2026-05-07 02:38 49.85068 132.63883 34840 ft 516 kts 125°
2026-05-07 02:39 49.81238 132.73292 34841 ft 517 kts 125°
2026-05-07 02:39 49.77400 132.82699 34834 ft 517 kts 125°
2026-05-07 02:40 49.73550 132.92098 34834 ft 518 kts 126°
2026-05-07 02:40 49.69693 133.01486 34827 ft 519 kts 126°
2026-05-07 02:41 49.65810 133.10901 34828 ft 519 kts 126°
2026-05-07 02:41 49.61921 133.20296 34824 ft 520 kts 126°
2026-05-07 02:42 49.58019 133.29691 34827 ft 520 kts 126°
2026-05-07 02:42 49.54109 133.39072 34822 ft 521 kts 126°
2026-05-07 02:43 49.50847 133.46873 34815 ft 521 kts 126°
2026-05-07 02:43 49.46918 133.56241 34820 ft 521 kts 127°
2026-05-07 02:44 49.42977 133.65606 34817 ft 522 kts 127°
2026-05-07 02:44 49.39030 133.74967 34815 ft 523 kts 127°
2026-05-07 02:45 49.35073 133.84339 34802 ft 524 kts 127°
2026-05-07 02:45 49.31101 133.93716 34804 ft 524 kts 127°
2026-05-07 02:46 49.27122 134.03078 34805 ft 525 kts 127°
2026-05-07 02:46 49.23125 134.12446 34804 ft 526 kts 128°
2026-05-07 02:47 49.19152 134.21727 34796 ft 527 kts 128°
2026-05-07 02:47 49.15123 134.31107 34810 ft 527 kts 128°
2026-05-07 02:48 49.11089 134.40468 34805 ft 528 kts 128°
2026-05-07 02:48 49.06610 134.49236 34805 ft 520 kts 139°
2026-05-07 02:49 49.01355 134.56688 34810 ft 515 kts 144°
2026-05-07 02:49 48.96016 134.63988 34809 ft 517 kts 144°
2026-05-07 02:50 48.90708 134.71378 34803 ft 517 kts 144°
2026-05-07 02:50 48.85385 134.78746 34801 ft 518 kts 144°
2026-05-07 02:51 48.80057 134.86089 34804 ft 517 kts 144°
2026-05-07 02:51 48.74724 134.93423 34803 ft 517 kts 144°
2026-05-07 02:52 48.69393 135.00734 34799 ft 517 kts 145°
2026-05-07 02:52 48.64058 135.08031 34796 ft 517 kts 145°
2026-05-07 02:53 48.58717 135.15288 34793 ft 512 kts 148°
2026-05-07 02:53 48.55805 135.18173 34796 ft 493 kts 164°
2026-05-07 02:53 48.52621 135.19820 34807 ft 478 kts 176°
2026-05-07 02:54 48.49366 135.20465 34808 ft 467 kts 187°
2026-05-07 02:54 48.46178 135.20123 34819 ft 457 kts 194°
2026-05-07 02:54 48.39810 135.19125 34807 ft 463 kts 193°
2026-05-07 02:55 48.33379 135.18237 34804 ft 464 kts 193°
2026-05-07 02:55 48.26999 135.17408 34805 ft 461 kts 193°
2026-05-07 02:56 48.20586 135.16581 34803 ft 458 kts 193°
2026-05-07 02:56 48.14259 135.15760 34817 ft 454 kts 194°
2026-05-07 02:57 48.07981 135.14944 34816 ft 452 kts 194°
2026-05-07 02:57 48.01729 135.14132 34815 ft 450 kts 194°
2026-05-07 02:58 47.95495 135.13327 34817 ft 449 kts 194°
2026-05-07 02:58 47.89268 135.12518 34820 ft 449 kts 194°
2026-05-07 02:59 47.83046 135.11707 34818 ft 449 kts 194°
2026-05-07 02:59 47.76861 135.10909 34818 ft 449 kts 194°
2026-05-07 03:00 47.70642 135.10116 34823 ft 448 kts 194°
2026-05-07 03:00 47.64433 135.09324 34823 ft 447 kts 195°
2026-05-07 03:01 47.58245 135.08537 34817 ft 446 kts 195°
2026-05-07 03:01 47.52076 135.07753 34817 ft 444 kts 195°
2026-05-07 03:02 47.45929 135.06973 34813 ft 442 kts 195°
2026-05-07 03:02 47.39808 135.06197 34814 ft 441 kts 195°
2026-05-07 03:03 47.33703 135.05425 34814 ft 439 kts 195°
2026-05-07 03:03 47.27623 135.04661 34814 ft 438 kts 196°
2026-05-07 03:04 47.21559 135.03899 34815 ft 437 kts 196°
2026-05-07 03:04 47.15512 135.03139 34811 ft 435 kts 196°
2026-05-07 03:05 47.09492 135.02385 34816 ft 433 kts 196°
2026-05-07 03:05 47.03491 135.01637 34810 ft 432 kts 197°
2026-05-07 03:06 46.97523 135.00894 34816 ft 430 kts 197°
2026-05-07 03:06 46.91616 135.00158 34807 ft 427 kts 197°
2026-05-07 03:07 46.85662 134.99418 34813 ft 425 kts 197°
2026-05-07 03:07 46.79823 134.98687 34815 ft 423 kts 197°
2026-05-07 03:08 46.73981 134.97894 34834 ft 421 kts 198°
2026-05-07 03:08 46.68165 134.97091 34821 ft 419 kts 198°
2026-05-07 03:09 46.62372 134.96299 34816 ft 418 kts 198°
2026-05-07 03:09 46.56598 134.95515 34816 ft 416 kts 198°
2026-05-07 03:10 46.50831 134.94734 34816 ft 416 kts 198°
2026-05-07 03:10 46.45069 134.93954 34817 ft 416 kts 198°
2026-05-07 03:11 46.39302 134.93176 34823 ft 417 kts 197°
2026-05-07 03:11 46.33520 134.92398 34818 ft 418 kts 197°
2026-05-07 03:12 46.27718 134.91618 34826 ft 419 kts 197°
2026-05-07 03:12 46.21905 134.90841 34817 ft 420 kts 197°
2026-05-07 03:13 46.16075 134.90062 34832 ft 421 kts 197°
2026-05-07 03:13 46.10228 134.89284 34833 ft 423 kts 197°
2026-05-07 03:14 46.04361 134.88503 34830 ft 424 kts 197°
2026-05-07 03:15 45.95528 134.87326 34833 ft 424 kts 198°
2026-05-07 03:15 45.92668 134.86592 34835 ft 413 kts 205°
2026-05-07 03:15 45.89936 134.85427 34839 ft 408 kts 208°
2026-05-07 03:16 45.84716 134.82347 34849 ft 402 kts 217°
2026-05-07 03:16 45.79842 134.78404 34848 ft 403 kts 218°
2026-05-07 03:17 45.74974 134.74418 34850 ft 403 kts 218°
2026-05-07 03:17 45.70100 134.70461 34845 ft 403 kts 218°
2026-05-07 03:18 45.65219 134.66525 34846 ft 402 kts 217°
2026-05-07 03:18 45.60342 134.62608 34847 ft 401 kts 217°
2026-05-07 03:19 45.55480 134.58710 34856 ft 401 kts 217°
2026-05-07 03:19 45.50615 134.54817 34853 ft 401 kts 217°
2026-05-07 03:20 45.45741 134.50924 34847 ft 402 kts 217°
2026-05-07 03:20 45.40896 134.47062 34843 ft 402 kts 217°
2026-05-07 03:21 45.36015 134.43180 34850 ft 402 kts 217°
2026-05-07 03:21 45.31124 134.39297 34845 ft 403 kts 217°
2026-05-07 03:22 45.26221 134.35413 34838 ft 403 kts 217°
2026-05-07 03:22 45.21326 134.31543 34848 ft 403 kts 217°
2026-05-07 03:23 45.16428 134.27677 34849 ft 403 kts 217°
2026-05-07 03:23 45.11526 134.23817 34848 ft 403 kts 217°
2026-05-07 03:24 45.06616 134.19958 34859 ft 405 kts 217°
2026-05-07 03:24 45.01684 134.16089 34840 ft 405 kts 217°
2026-05-07 03:25 44.96757 134.12233 34853 ft 406 kts 217°
2026-05-07 03:25 44.91818 134.08372 34851 ft 406 kts 217°
2026-05-07 03:26 44.86878 134.04518 34846 ft 405 kts 217°
2026-05-07 03:26 44.81956 134.00669 34847 ft 404 kts 218°
2026-05-07 03:27 44.77099 133.96704 34865 ft 403 kts 218°
2026-05-07 03:27 44.72257 133.92714 34851 ft 403 kts 218°
2026-05-07 03:28 44.67408 133.88740 34855 ft 404 kts 218°
2026-05-07 03:28 44.62543 133.84770 34859 ft 404 kts 218°
2026-05-07 03:29 44.57710 133.80840 34850 ft 405 kts 218°
2026-05-07 03:29 44.52839 133.76887 34853 ft 404 kts 218°
2026-05-07 03:30 44.47962 133.72936 34855 ft 405 kts 218°
2026-05-07 03:30 44.43076 133.68988 34865 ft 406 kts 218°
2026-05-07 03:31 44.38191 133.65045 34853 ft 405 kts 218°
2026-05-07 03:31 44.33306 133.61112 34862 ft 405 kts 218°
2026-05-07 03:32 44.29210 133.57817 34856 ft 406 kts 218°
2026-05-07 03:32 44.24320 133.53891 34875 ft 406 kts 218°
2026-05-07 03:33 44.19462 133.50003 34865 ft 405 kts 218°
2026-05-07 03:33 44.14584 133.46105 34863 ft 403 kts 218°
2026-05-07 03:34 44.09723 133.42226 34865 ft 402 kts 218°
2026-05-07 03:34 44.04881 133.38368 34860 ft 401 kts 218°
2026-05-07 03:35 44.00039 133.34518 34858 ft 401 kts 218°
2026-05-07 03:35 43.95205 133.30681 34867 ft 400 kts 218°
2026-05-07 03:36 43.90614 133.26484 34870 ft 389 kts 227°
2026-05-07 03:36 43.86727 133.21325 34866 ft 385 kts 232°
2026-05-07 03:37 43.83526 133.15466 34878 ft 381 kts 239°
2026-05-07 03:37 43.80577 133.09368 34869 ft 382 kts 239°
2026-05-07 03:38 43.77609 133.03275 34860 ft 382 kts 239°
2026-05-07 03:38 43.74625 132.97194 34866 ft 382 kts 239°
2026-05-07 03:39 43.71641 132.91136 34869 ft 381 kts 239°
2026-05-07 03:39 43.68663 132.85106 34865 ft 379 kts 239°
2026-05-07 03:40 43.65838 132.78983 34865 ft 376 kts 246°
2026-05-07 03:40 43.64159 132.72195 34864 ft 374 kts 252°
2026-05-07 03:41 43.62550 132.65353 34874 ft 376 kts 251°
2026-05-07 03:41 43.60911 132.58500 34867 ft 376 kts 251°
2026-05-07 03:42 43.59256 132.51647 34855 ft 377 kts 251°
2026-05-07 03:42 43.57607 132.44838 34872 ft 377 kts 251°
2026-05-07 03:43 43.55939 132.37976 34867 ft 378 kts 251°
2026-05-07 03:43 43.54307 132.31285 34855 ft 353 kts 251°
2026-05-07 03:43 43.53543 132.28152 34867 ft 337 kts 251°
2026-05-07 03:44 43.52812 132.25162 34859 ft 322 kts 251°
2026-05-07 03:44 43.52113 132.22306 34859 ft 308 kts 251°
2026-05-07 03:44 43.51442 132.19568 34866 ft 299 kts 251°
2026-05-07 03:44 43.50779 132.16871 34869 ft 296 kts 251°
2026-05-07 03:45 43.50112 132.14159 34876 ft 294 kts 251°
2026-05-07 03:45 43.49466 132.11536 34880 ft 293 kts 251°
2026-05-07 03:45 43.48751 132.08913 34872 ft 292 kts 246°
2026-05-07 03:45 43.47810 132.06435 34884 ft 292 kts 243°
2026-05-07 03:46 43.46801 132.04009 34889 ft 292 kts 243°
2026-05-07 03:46 43.45788 132.01575 34883 ft 293 kts 243°
2026-05-07 03:46 43.44785 131.99127 34884 ft 294 kts 243°
2026-05-07 03:46 43.43787 131.96663 34882 ft 295 kts 243°
2026-05-07 03:47 43.42788 131.94191 34884 ft 297 kts 243°
2026-05-07 03:47 43.41696 131.91783 34868 ft 299 kts 234°
2026-05-07 03:47 43.40107 131.89866 34881 ft 311 kts 223°
2026-05-07 03:48 43.36132 131.87117 34877 ft 331 kts 211°
2026-05-07 03:48 43.33783 131.86558 34865 ft 360 kts 193°
2026-05-07 03:48 43.31227 131.87313 34850 ft 399 kts 169°
2026-05-07 03:48 43.28897 131.89638 34857 ft 435 kts 145°
2026-05-07 03:49 43.27235 131.93279 34869 ft 469 kts 120°
2026-05-07 03:49 43.26562 131.97765 34867 ft 494 kts 95°
2026-05-07 03:49 43.27030 132.02418 34884 ft 507 kts 70°
2026-05-07 03:49 43.28646 132.06769 34895 ft 504 kts 45°
2026-05-07 03:50 43.31079 132.09982 34889 ft 482 kts 23°
2026-05-07 03:50 43.36676 132.15166 34882 ft 494 kts 33°
2026-05-07 03:50 43.39029 132.18583 34893 ft 505 kts 46°
2026-05-07 03:51 43.41237 132.22364 34911 ft 513 kts 47°
2026-05-07 03:51 43.43470 132.26211 34871 ft 514 kts 36°
2026-05-07 03:51 43.46301 132.29060 34908 ft 497 kts 15°
2026-05-07 03:51 43.49486 132.30788 34904 ft 489 kts
2026-05-07 03:52 43.52792 132.31833 34886 ft 486 kts 355°
2026-05-07 03:52 43.56125 132.32144 34881 ft 474 kts 343°
2026-05-07 03:52 43.59310 132.31472 34887 ft 455 kts 328°
2026-05-07 03:52 43.62136 132.29789 34897 ft 434 kts 314°
2026-05-07 03:53 43.64486 132.27305 34889 ft 419 kts 302°
2026-05-07 03:53 43.67702 132.20883 34883 ft 400 kts 283°
2026-05-07 03:54 43.68911 132.13582 34879 ft 386 kts 266°
2026-05-07 03:54 43.68053 132.06385 34877 ft 379 kts 249°
2026-05-07 03:55 43.65317 132.00167 34878 ft 385 kts 232°
2026-05-07 03:55 43.60968 131.95664 34864 ft 404 kts 214°
2026-05-07 03:55 43.58283 131.94324 34867 ft 418 kts 205°
2026-05-07 03:56 43.55348 131.93754 34867 ft 437 kts 194°
2026-05-07 03:56 43.52249 131.94078 34871 ft 459 kts 182°
2026-05-07 03:56 43.49120 131.95424 34866 ft 485 kts 169°
2026-05-07 03:56 43.46120 131.97768 34873 ft 508 kts 157°
2026-05-07 03:57 43.43447 132.01145 34867 ft 540 kts 140°
2026-05-07 03:57 43.41308 132.05507 34902 ft 556 kts 131°
2026-05-07 03:57 43.39282 132.10040 34882 ft 556 kts 133°
2026-05-07 03:58 43.35050 132.18933 34879 ft 557 kts 134°
2026-05-07 03:58 43.30790 132.27819 34865 ft 557 kts 134°
2026-05-07 03:59 43.26523 132.36714 34868 ft 558 kts 134°
2026-05-07 03:59 43.22252 132.45611 34858 ft 559 kts 134°
2026-05-07 04:00 43.17978 132.54503 34841 ft 559 kts 134°
2026-05-07 04:00 43.13695 132.63413 34849 ft 560 kts 134°
2026-05-07 04:01 43.09413 132.72319 34867 ft 560 kts 133°
2026-05-07 04:01 43.05122 132.81233 34831 ft 561 kts 134°
2026-05-07 04:02 43.00839 132.90128 34853 ft 560 kts 134°
2026-05-07 04:02 42.96561 132.99011 34847 ft 560 kts 133°
2026-05-07 04:03 42.92281 133.07895 34835 ft 560 kts 133°
2026-05-07 04:03 42.88025 133.16711 34847 ft 561 kts 133°
2026-05-07 04:04 42.83737 133.25585 34858 ft 561 kts 133°
2026-05-07 04:04 42.79423 133.34509 34863 ft 560 kts 133°
2026-05-07 04:05 42.75143 133.43361 34850 ft 559 kts 133°
2026-05-07 04:05 42.70908 133.52124 34850 ft 557 kts 133°
2026-05-07 04:06 42.66667 133.60908 34855 ft 554 kts 133°
2026-05-07 04:06 42.62450 133.69650 34852 ft 552 kts 133°
2026-05-07 04:07 42.58249 133.78364 34854 ft 551 kts 133°
2026-05-07 04:07 42.54062 133.87050 34866 ft 550 kts 133°
2026-05-07 04:08 42.49884 133.95717 34860 ft 549 kts 133°
2026-05-07 04:08 42.45707 134.04378 34861 ft 549 kts 132°
2026-05-07 04:09 42.41534 134.13026 34861 ft 549 kts 132°
2026-05-07 04:09 42.37364 134.21664 34871 ft 548 kts 132°
2026-05-07 04:10 42.33190 134.30302 34862 ft 548 kts 132°
2026-05-07 04:10 42.29021 134.38927 34861 ft 548 kts 132°
2026-05-07 04:11 42.24852 134.47545 34859 ft 548 kts 132°
2026-05-07 04:11 42.20682 134.56157 34853 ft 548 kts 132°
2026-05-07 04:12 42.16512 134.64764 34849 ft 548 kts 132°
2026-05-07 04:12 42.12343 134.73362 34853 ft 548 kts 132°
2026-05-07 04:13 42.08199 134.81903 34854 ft 548 kts 132°
2026-05-07 04:13 42.04030 134.90487 34854 ft 548 kts 132°
2026-05-07 04:14 41.99857 134.99073 34849 ft 548 kts 131°
2026-05-07 04:14 41.95686 135.07647 34853 ft 548 kts 131°
2026-05-07 04:15 41.91516 135.16213 34848 ft 548 kts 131°
2026-05-07 04:15 41.87347 135.24774 34844 ft 548 kts 131°
2026-05-07 04:16 41.83177 135.33328 34842 ft 548 kts 131°
2026-05-07 04:16 41.79008 135.41879 34843 ft 548 kts 131°
2026-05-07 04:17 41.74841 135.50417 34848 ft 548 kts 131°
2026-05-07 04:17 41.70672 135.58950 34844 ft 548 kts 131°
2026-05-07 04:18 41.66501 135.67480 34840 ft 548 kts 131°
2026-05-07 04:18 41.62330 135.76003 34838 ft 548 kts 131°
2026-05-07 04:19 41.58865 135.83077 34836 ft 548 kts 131°
2026-05-07 04:19 41.54695 135.91585 34837 ft 547 kts 130°
2026-05-07 04:20 41.49848 136.01464 34843 ft 547 kts 130°
2026-05-07 04:20 41.46357 136.08575 34836 ft 547 kts 130°
2026-05-07 04:21 41.40110 136.21290 34838 ft 546 kts 130°
2026-05-07 04:21 41.35950 136.29748 34834 ft 546 kts 130°
2026-05-07 04:22 41.31792 136.38198 34838 ft 545 kts 130°
2026-05-07 04:22 41.27666 136.46577 34838 ft 545 kts 130°
2026-05-07 04:23 41.23512 136.55005 34840 ft 545 kts 130°
2026-05-07 04:23 41.19361 136.63422 34840 ft 544 kts 129°
2026-05-07 04:24 41.15217 136.71820 34842 ft 544 kts 129°
2026-05-07 04:24 41.11075 136.80208 34846 ft 543 kts 129°
2026-05-07 04:25 41.06943 136.88572 34849 ft 542 kts 129°
2026-05-07 04:25 41.02814 136.96926 34845 ft 541 kts 129°
2026-05-07 04:26 40.98693 137.05260 34851 ft 541 kts 129°
2026-05-07 04:26 40.94578 137.13578 34844 ft 540 kts 129°
2026-05-07 04:27 40.90466 137.21884 34851 ft 539 kts 129°
2026-05-07 04:27 40.86360 137.30174 34852 ft 539 kts 129°
2026-05-07 04:28 40.82257 137.38453 34862 ft 538 kts 129°
2026-05-07 04:28 40.78159 137.46717 34856 ft 538 kts 129°
2026-05-07 04:29 40.74064 137.54970 34865 ft 538 kts 129°
2026-05-07 04:29 40.69970 137.63216 34863 ft 537 kts 129°
2026-05-07 04:30 40.65908 137.71392 34871 ft 537 kts 129°
2026-05-07 04:30 40.61821 137.79615 34869 ft 536 kts 129°
2026-05-07 04:31 40.57736 137.87826 34875 ft 536 kts 128°
2026-05-07 04:31 40.55693 137.91935 34719 ft 536 kts 131°
2026-05-07 04:31 40.53657 137.96031 34788 ft 536 kts 131°
2026-05-07 04:32 40.49577 138.04234 34883 ft 537 kts 131°
2026-05-07 04:32 40.45473 138.12469 34885 ft 540 kts 131°
2026-05-07 04:33 40.41351 138.20724 34882 ft 542 kts 131°
2026-05-07 04:33 40.37216 138.28993 34885 ft 542 kts 131°
2026-05-07 04:34 40.33081 138.37258 34896 ft 541 kts 131°
2026-05-07 04:34 40.28957 138.45501 34891 ft 540 kts 130°
2026-05-07 04:35 40.24840 138.53728 34899 ft 539 kts 130°
2026-05-07 04:35 40.20735 138.61933 34900 ft 539 kts 130°
2026-05-07 04:36 40.16634 138.70125 34907 ft 538 kts 130°
2026-05-07 04:36 40.12539 138.78304 34908 ft 538 kts 130°
2026-05-07 04:37 40.08446 138.86475 34917 ft 537 kts 130°
2026-05-07 04:37 40.04352 138.94642 34919 ft 537 kts 130°
2026-05-07 04:38 40.00258 139.02805 34921 ft 537 kts 130°
2026-05-07 04:38 39.96165 139.10959 34925 ft 538 kts 130°
2026-05-07 04:39 39.92097 139.19060 34930 ft 538 kts 130°
2026-05-07 04:39 39.87998 139.27215 34940 ft 538 kts 130°
2026-05-07 04:40 39.83898 139.35368 34931 ft 539 kts 130°
2026-05-07 04:40 39.79790 139.43527 34931 ft 539 kts 130°
2026-05-07 04:41 39.75684 139.51678 34942 ft 539 kts 130°
2026-05-07 04:41 39.71573 139.59833 34945 ft 540 kts 130°
2026-05-07 04:42 39.67459 139.67990 34946 ft 540 kts 129°
2026-05-07 04:42 39.63345 139.76139 34952 ft 540 kts 129°
2026-05-07 04:43 39.59228 139.84290 34955 ft 540 kts 129°
2026-05-07 04:43 39.55105 139.92445 34958 ft 541 kts 129°
2026-05-07 04:44 39.50979 140.00603 34957 ft 541 kts 129°
2026-05-07 04:44 39.46854 140.08752 34959 ft 542 kts 129°
2026-05-07 04:45 39.42724 140.16909 34963 ft 542 kts 129°
2026-05-07 04:45 39.38587 140.25072 34956 ft 543 kts 129°
2026-05-07 04:46 39.34447 140.33237 34948 ft 543 kts 129°
2026-05-07 04:46 39.30313 140.41384 34943 ft 542 kts 129°
2026-05-07 04:47 39.26187 140.49511 34941 ft 541 kts 129°
2026-05-07 04:47 39.22065 140.57631 34949 ft 541 kts 129°
2026-05-07 04:48 39.17946 140.65742 34946 ft 541 kts 129°
2026-05-07 04:48 39.13853 140.73792 34947 ft 541 kts 129°
2026-05-07 04:49 39.09732 140.81899 34934 ft 541 kts 129°
2026-05-07 04:49 39.05614 140.89995 34935 ft 541 kts 129°
2026-05-07 04:50 39.01486 140.98106 34938 ft 542 kts 129°
2026-05-07 04:50 38.97360 141.06207 34918 ft 542 kts 129°
2026-05-07 04:51 38.93234 141.14306 34916 ft 542 kts 129°
2026-05-07 04:51 38.89106 141.22405 34933 ft 542 kts 129°
2026-05-07 04:52 38.84973 141.30506 34926 ft 542 kts 128°
2026-05-07 04:52 38.80842 141.38599 34926 ft 542 kts 128°
2026-05-07 04:53 38.76710 141.46690 34929 ft 543 kts 128°
2026-05-07 04:53 38.72578 141.54774 34940 ft 542 kts 128°
2026-05-07 04:54 38.68453 141.62845 34939 ft 542 kts 128°
2026-05-07 04:54 38.64327 141.70916 34947 ft 542 kts 128°
2026-05-07 04:55 38.60203 141.78979 34950 ft 542 kts 128°
2026-05-07 04:55 38.56083 141.87032 34952 ft 541 kts 128°
2026-05-07 04:56 38.51959 141.95088 34955 ft 541 kts 128°
2026-05-07 04:56 38.47838 142.03135 34960 ft 541 kts 128°
2026-05-07 04:57 38.43720 142.11172 34961 ft 541 kts 128°
2026-05-07 04:57 38.39599 142.19212 34962 ft 541 kts 128°
2026-05-07 04:58 38.35484 142.27237 34967 ft 541 kts 128°
2026-05-07 04:58 38.31364 142.35265 34966 ft 541 kts 128°
2026-05-07 04:59 38.27253 142.43274 34969 ft 541 kts 128°
2026-05-07 04:59 38.23166 142.51230 34971 ft 540 kts 128°
2026-05-07 05:00 38.19056 142.59229 34969 ft 540 kts 128°
2026-05-07 05:00 38.14947 142.67219 34972 ft 540 kts 128°
2026-05-07 05:01 38.10844 142.75197 34974 ft 539 kts 128°
2026-05-07 05:01 38.06743 142.83163 34969 ft 539 kts 127°
2026-05-07 05:02 38.02646 142.91120 34976 ft 538 kts 127°
2026-05-07 05:02 37.98555 142.99063 34971 ft 537 kts 127°
2026-05-07 05:03 37.94475 143.06982 34972 ft 536 kts 127°
2026-05-07 05:03 37.90397 143.14893 34979 ft 536 kts 127°
2026-05-07 05:04 37.86327 143.22786 34982 ft 535 kts 127°
2026-05-07 05:04 37.82259 143.30670 34980 ft 535 kts 127°
2026-05-07 05:05 37.78193 143.38547 34978 ft 534 kts 127°
2026-05-07 05:05 37.74134 143.46407 34972 ft 533 kts 127°
2026-05-07 05:06 37.70088 143.54242 34984 ft 532 kts 127°
2026-05-07 05:06 37.66045 143.62068 34983 ft 531 kts 127°
2026-05-07 05:07 37.62694 143.68552 34988 ft 530 kts 127°
2026-05-07 05:07 37.58670 143.76338 34986 ft 529 kts 127°
2026-05-07 05:08 37.54651 143.84113 34983 ft 529 kts 127°
2026-05-07 05:08 37.49987 143.93130 34987 ft 528 kts 127°
2026-05-07 05:09 37.46629 143.99624 34988 ft 528 kts 127°
2026-05-07 05:09 37.42630 144.07352 34992 ft 527 kts 127°
2026-05-07 05:10 37.38628 144.15083 34992 ft 527 kts 127°
2026-05-07 05:10 37.34631 144.22802 34997 ft 527 kts 127°
2026-05-07 05:11 37.30662 144.30464 34994 ft 527 kts 127°
2026-05-07 05:11 37.26665 144.38176 34995 ft 527 kts 127°
2026-05-07 05:12 37.22668 144.45885 34996 ft 527 kts 127°
2026-05-07 05:12 37.18672 144.53587 35002 ft 527 kts 127°
2026-05-07 05:13 37.14671 144.61294 34997 ft 527 kts 127°
2026-05-07 05:13 37.10671 144.68998 35007 ft 527 kts 127°
2026-05-07 05:14 37.06670 144.76699 35010 ft 528 kts 127°
2026-05-07 05:14 37.02664 144.84407 35014 ft 528 kts 127°
2026-05-07 05:15 36.98661 144.92104 35010 ft 528 kts 127°
2026-05-07 05:15 36.94658 144.99800 35013 ft 528 kts 127°
2026-05-07 05:16 36.90653 145.07495 35015 ft 528 kts 127°
2026-05-07 05:16 36.86657 145.15174 35016 ft 527 kts 127°
2026-05-07 05:17 36.82664 145.22842 35021 ft 527 kts 127°
2026-05-07 05:17 36.78699 145.30454 35020 ft 526 kts 127°
2026-05-07 05:18 36.74711 145.38108 35020 ft 526 kts 127°
2026-05-07 05:18 36.70727 145.45752 35025 ft 526 kts 127°
2026-05-07 05:19 36.66746 145.53387 35027 ft 525 kts 127°
2026-05-07 05:19 36.62766 145.61017 35029 ft 525 kts 127°
2026-05-07 05:20 36.58836 145.68584 35016 ft 514 kts 127°
2026-05-07 05:20 36.55050 145.76011 35017 ft 503 kts 126°
2026-05-07 05:21 36.49605 145.86994 35023 ft 492 kts 126°
2026-05-07 05:22 36.46113 145.94244 35027 ft 486 kts 125°
2026-05-07 05:22 36.42722 146.01457 35030 ft 481 kts 124°
2026-05-07 05:23 36.39430 146.08627 35029 ft 476 kts 124°
2026-05-07 05:23 36.36224 146.15780 35035 ft 472 kts 124°
2026-05-07 05:24 36.33106 146.22907 35048 ft 468 kts 123°
2026-05-07 05:24 36.30072 146.30016 35037 ft 465 kts 123°
2026-05-07 05:25 36.27114 146.37122 35038 ft 462 kts 122°
2026-05-07 05:25 36.24236 146.44215 35039 ft 460 kts 122°
2026-05-07 05:26 36.21433 146.51305 35041 ft 457 kts 121°
2026-05-07 05:26 36.18706 146.58391 35042 ft 455 kts 121°
2026-05-07 05:27 36.16067 146.65434 35011 ft 440 kts 120°
2026-05-07 05:27 36.14824 146.68823 35000 ft 425 kts 120°
2026-05-07 05:27 36.13640 146.72092 34985 ft 409 kts 120°
2026-05-07 05:27 36.12505 146.75256 34843 ft 398 kts 120°
2026-05-07 05:28 36.11378 146.78397 34138 ft 405 kts 120°
2026-05-07 05:28 36.10198 146.81642 33068 ft 422 kts 120°
2026-05-07 05:28 36.08967 146.84970 32421 ft 425 kts 120°
2026-05-07 05:28 36.07744 146.88233 32378 ft 410 kts 120°
2026-05-07 05:29 36.06571 146.91344 32468 ft 391 kts 121°
2026-05-07 05:29 36.05440 146.94310 32183 ft 385 kts 122°
2026-05-07 05:29 36.04249 146.97354 31435 ft 393 kts 122°
2026-05-07 05:29 36.03024 147.00379 30622 ft 404 kts 122°
2026-05-07 05:30 36.01726 147.03473 30146 ft 404 kts 123°
2026-05-07 05:30 36.00423 147.06494 30042 ft 391 kts 124°
2026-05-07 05:30 35.99149 147.09380 29989 ft 376 kts 125°
2026-05-07 05:30 35.97884 147.12180 29627 ft 372 kts 126°
2026-05-07 05:31 35.96586 147.14964 28927 ft 378 kts 127°
2026-05-07 05:31 35.95229 147.17777 28197 ft 385 kts 127°
2026-05-07 05:31 35.93830 147.20591 27750 ft 383 kts 128°
2026-05-07 05:31 35.92433 147.23339 27607 ft 372 kts 129°
2026-05-07 05:32 35.91063 147.25984 27455 ft 361 kts 130°
2026-05-07 05:32 35.89699 147.28567 27060 ft 359 kts 130°
2026-05-07 05:32 35.88301 147.31142 26463 ft 364 kts 131°
2026-05-07 05:32 35.86854 147.33732 25923 ft 368 kts 131°
2026-05-07 05:33 35.85382 147.36298 25604 ft 364 kts 132°
2026-05-07 05:33 35.83923 147.38791 25439 ft 354 kts 133°
2026-05-07 05:33 35.82480 147.41204 25214 ft 347 kts 134°
2026-05-07 05:33 35.81025 147.43567 24805 ft 346 kts 135°
2026-05-07 05:34 35.79529 147.45915 24318 ft 350 kts 135°
2026-05-07 05:34 35.77993 147.48249 23904 ft 350 kts 136°
2026-05-07 05:34 35.76442 147.50533 23654 ft 344 kts 137°
2026-05-07 05:34 35.74921 147.52715 23431 ft 336 kts 138°
2026-05-07 05:35 35.73387 147.54854 23107 ft 332 kts 139°
2026-05-07 05:35 35.71834 147.56949 22641 ft 332 kts 140°
2026-05-07 05:35 35.70225 147.59046 22171 ft 333 kts 140°
2026-05-07 05:35 35.68638 147.61053 21818 ft 330 kts 141°
2026-05-07 05:36 35.67032 147.63034 21563 ft 324 kts 142°
2026-05-07 05:36 35.65418 147.64985 21273 ft 319 kts 143°
2026-05-07 05:36 35.63845 147.66847 20885 ft 318 kts 143°